Wetterdaten: Dienstag, 29.01.2019
Datum Zeit Temp. Aussen Temp. o. S. +5cm Feuchte Auss Luftdruck Regen Sonnenschein Regendauer Solar Windben Empfang
29.01.2019 00:00 0,9 C 0,0 C -0,6 C 95 % 1003,5 hPa 0,0 l/m 0 min 0 min 0 W/m 12,9 km/h (3 Bft) 97,83 %
29.01.2019 00:02 0,9 C 0,0 C -0,6 C 95 % 1003,5 hPa 0,0 l/m 0 min 2 min 0 W/m 3,2 km/h (1 Bft) 4,76 %
29.01.2019 00:04 0,9 C 0,0 C -0,6 C 95 % 1003,6 hPa 0,0 l/m 0 min 2 min 0 W/m 12,9 km/h (3 Bft) 97,50 %
29.01.2019 00:08 0,9 C 0,6 C 0,0 C 96 % 1003,5 hPa 0,0 l/m 0 min 4 min 0 W/m 12,9 km/h (3 Bft) 97,67 %
29.01.2019 00:10 0,9 C 0,6 C 0,0 C 96 % 1003,6 hPa 0,0 l/m 0 min 2 min 0 W/m 19,3 km/h (3 Bft) 97,87 %
29.01.2019 00:12 0,9 C 0,6 C 0,0 C 96 % 1003,6 hPa 0,0 l/m 0 min 2 min 0 W/m 9,7 km/h (2 Bft) 97,87 %
29.01.2019 00:14 0,9 C 0,6 C 0,0 C 96 % 1003,5 hPa 0,0 l/m 0 min 2 min 0 W/m 9,7 km/h (2 Bft) 97,83 %
29.01.2019 00:16 1,0 C 0,6 C 0,0 C 96 % 1003,6 hPa 0,0 l/m 0 min 0 min 0 W/m 19,3 km/h (3 Bft) 93,62 %
29.01.2019 00:18 1,0 C 0,6 C 0,0 C 96 % 1003,7 hPa 0,0 l/m 0 min 0 min 0 W/m 9,7 km/h (2 Bft) 95,74 %
29.01.2019 00:20 1,0 C 0,6 C 0,0 C 96 % 1003,8 hPa 0,0 l/m 0 min 0 min 0 W/m 19,3 km/h (3 Bft) 97,87 %
29.01.2019 00:22 1,0 C 0,6 C 0,0 C 96 % 1003,7 hPa 0,0 l/m 0 min 0 min 0 W/m 12,9 km/h (3 Bft) 95,74 %
29.01.2019 00:24 1,1 C 0,6 C 0,0 C 96 % 1003,7 hPa 0,0 l/m 0 min 0 min 0 W/m 19,3 km/h (3 Bft) 95,92 %
29.01.2019 00:26 1,1 C 0,6 C 0,0 C 96 % 1003,7 hPa 0,0 l/m 0 min 0 min 0 W/m 9,7 km/h (2 Bft) 97,83 %
29.01.2019 00:28 1,1 C 0,6 C 0,0 C 96 % 1003,8 hPa 0,0 l/m 0 min 0 min 0 W/m 16,1 km/h (3 Bft) 100,00 %
29.01.2019 00:30 1,1 C 0,6 C 0,0 C 96 % 1003,8 hPa 0,0 l/m 0 min 0 min 0 W/m 3,2 km/h (1 Bft) 97,87 %
29.01.2019 00:32 1,1 C 0,6 C 0,0 C 96 % 1003,8 hPa 0,0 l/m 0 min 0 min 0 W/m 9,7 km/h (2 Bft) 97,87 %
29.01.2019 00:34 1,1 C 0,6 C 0,0 C 96 % 1003,8 hPa 0,0 l/m 0 min 0 min 0 W/m 16,1 km/h (3 Bft) 97,87 %
29.01.2019 00:36 1,1 C 0,6 C 0,0 C 96 % 1003,8 hPa 0,0 l/m 0 min 0 min 0 W/m 12,9 km/h (3 Bft) 95,65 %
29.01.2019 00:38 1,1 C 0,6 C 0,0 C 96 % 1003,9 hPa 0,0 l/m 0 min 0 min 0 W/m 12,9 km/h (3 Bft) 97,87 %
29.01.2019 00:40 1,1 C 0,6 C 0,0 C 96 % 1003,9 hPa 0,0 l/m 0 min 0 min 0 W/m 9,7 km/h (2 Bft) 97,87 %
29.01.2019 00:42 1,1 C 0,6 C 0,0 C 96 % 1004,0 hPa 0,0 l/m 0 min 0 min 0 W/m 6,4 km/h (2 Bft) 97,87 %
29.01.2019 00:44 1,1 C 0,6 C 0,0 C 96 % 1004,0 hPa 0,0 l/m 0 min 0 min 0 W/m 16,1 km/h (3 Bft) 97,87 %
29.01.2019 00:46 1,1 C 0,6 C 0,0 C 96 % 1004,0 hPa 0,0 l/m 0 min 0 min 0 W/m 12,9 km/h (3 Bft) 93,62 %
29.01.2019 00:48 1,1 C 0,6 C 0,0 C 96 % 1004,0 hPa 0,0 l/m 0 min 0 min 0 W/m 9,7 km/h (2 Bft) 97,83 %
29.01.2019 00:50 1,1 C 0,6 C 0,0 C 96 % 1004,1 hPa 0,0 l/m 0 min 0 min 0 W/m 16,1 km/h (3 Bft) 95,74 %
29.01.2019 00:52 1,1 C 0,6 C 0,0 C 96 % 1004,1 hPa 0,0 l/m 0 min 0 min 0 W/m 9,7 km/h (2 Bft) 95,74 %
29.01.2019 00:54 1,1 C 0,6 C 0,0 C 96 % 1004,1 hPa 0,0 l/m 0 min 0 min 0 W/m 16,1 km/h (3 Bft) 100,00 %
29.01.2019 00:56 1,1 C 0,6 C 0,0 C 96 % 1004,1 hPa 0,0 l/m 0 min 0 min 0 W/m 12,9 km/h (3 Bft) 97,87 %
29.01.2019 00:58 1,1 C 0,6 C 0,0 C 96 % 1004,1 hPa 0,0 l/m 0 min 0 min 0 W/m 12,9 km/h (3 Bft) 97,87 %
29.01.2019 01:00 1,1 C 0,6 C 0,0 C 96 % 1004,1 hPa 0,0 l/m 0 min 0 min 0 W/m 9,7 km/h (2 Bft) 97,83 %
29.01.2019 01:02 1,1 C 0,6 C 0,0 C 96 % 1004,1 hPa 0,0 l/m 0 min 0 min 0 W/m 19,3 km/h (3 Bft) 97,87 %
29.01.2019 01:04 1,0 C 0,6 C 0,0 C 96 % 1004,1 hPa 0,0 l/m 0 min 0 min 0 W/m 9,7 km/h (2 Bft) 97,87 %
29.01.2019 01:06 1,0 C 0,6 C 0,0 C 96 % 1004,1 hPa 0,0 l/m 0 min 0 min 0 W/m 12,9 km/h (3 Bft) 97,87 %
29.01.2019 01:08 1,0 C 0,6 C 0,0 C 96 % 1004,1 hPa 0,0 l/m 0 min 0 min 0 W/m 9,7 km/h (2 Bft) 97,87 %
29.01.2019 01:10 1,0 C 0,6 C 0,0 C 96 % 1004,2 hPa 0,0 l/m 0 min 0 min 0 W/m 9,7 km/h (2 Bft) 97,87 %
29.01.2019 01:12 1,0 C 0,6 C 0,0 C 96 % 1004,1 hPa 0,0 l/m 0 min 0 min 0 W/m 12,9 km/h (3 Bft) 97,83 %
29.01.2019 01:14 1,0 C 0,6 C 0,0 C 96 % 1004,1 hPa 0,0 l/m 0 min 0 min 0 W/m 9,7 km/h (2 Bft) 95,74 %
29.01.2019 01:16 1,0 C 0,6 C 0,0 C 96 % 1004,2 hPa 0,0 l/m 0 min 0 min 0 W/m 9,7 km/h (2 Bft) 97,87 %
29.01.2019 01:18 1,0 C 0,6 C 0,0 C 96 % 1004,1 hPa 0,0 l/m 0 min 0 min 0 W/m 16,1 km/h (3 Bft) 95,74 %
29.01.2019 01:20 1,0 C 0,6 C 0,0 C 96 % 1004,1 hPa 0,0 l/m 0 min 0 min 0 W/m 16,1 km/h (3 Bft) 97,87 %
29.01.2019 01:22 1,0 C 0,6 C 0,0 C 96 % 1004,0 hPa 0,0 l/m 0 min 0 min 0 W/m 12,9 km/h (3 Bft) 97,87 %
29.01.2019 01:24 1,0 C 0,6 C 0,0 C 96 % 1004,1 hPa 0,0 l/m 0 min 0 min 0 W/m 19,3 km/h (3 Bft) 97,83 %
29.01.2019 01:26 1,0 C 0,6 C 0,0 C 96 % 1004,1 hPa 0,0 l/m 0 min 0 min 0 W/m 12,9 km/h (3 Bft) 95,74 %
29.01.2019 01:28 1,0 C 0,6 C 0,0 C 96 % 1004,0 hPa 0,0 l/m 0 min 0 min 0 W/m 12,9 km/h (3 Bft) 97,87 %
29.01.2019 01:30 1,0 C 0,6 C 0,0 C 96 % 1004,0 hPa 0,0 l/m 0 min 0 min 0 W/m 6,4 km/h (2 Bft) 97,87 %
29.01.2019 01:32 1,0 C 0,6 C 0,0 C 96 % 1004,1 hPa 0,0 l/m 0 min 0 min 0 W/m 9,7 km/h (2 Bft) 97,87 %
29.01.2019 01:34 1,0 C 0,0 C -0,6 C 96 % 1004,0 hPa 0,0 l/m 0 min 0 min 0 W/m 6,4 km/h (2 Bft) 100,00 %
29.01.2019 01:36 0,9 C 0,0 C -0,6 C 96 % 1004,0 hPa 0,0 l/m 0 min 0 min 0 W/m 9,7 km/h (2 Bft) 97,83 %
29.01.2019 01:38 0,9 C 0,0 C -0,6 C 96 % 1004,0 hPa 0,0 l/m 0 min 0 min 0 W/m 6,4 km/h (2 Bft) 97,87 %
29.01.2019 01:40 0,9 C 0,0 C -0,6 C 96 % 1004,0 hPa 0,0 l/m 0 min 0 min 0 W/m 6,4 km/h (2 Bft) 97,87 %
29.01.2019 01:42 0,9 C 0,0 C -0,6 C 96 % 1004,0 hPa 0,0 l/m 0 min 0 min 0 W/m 3,2 km/h (1 Bft) 97,87 %
29.01.2019 01:44 0,9 C 0,0 C -0,6 C 96 % 1004,1 hPa 0,0 l/m 0 min 0 min 0 W/m 6,4 km/h (2 Bft) 95,74 %
29.01.2019 01:46 0,9 C 0,0 C -0,6 C 96 % 1004,0 hPa 0,0 l/m 0 min 0 min 0 W/m 6,4 km/h (2 Bft) 97,83 %
29.01.2019 01:48 0,8 C 0,0 C -0,6 C 96 % 1004,0 hPa 0,0 l/m 0 min 0 min 0 W/m 12,9 km/h (3 Bft) 95,74 %
29.01.2019 01:50 0,8 C 0,0 C -0,6 C 96 % 1004,0 hPa 0,0 l/m 0 min 0 min 0 W/m 3,2 km/h (1 Bft) 97,87 %
29.01.2019 01:52 0,8 C 0,0 C -0,6 C 96 % 1004,0 hPa 0,0 l/m 0 min 0 min 0 W/m 3,2 km/h (1 Bft) 97,87 %
29.01.2019 01:54 0,8 C 0,0 C -0,6 C 96 % 1004,0 hPa 0,0 l/m 0 min 0 min 0 W/m 6,4 km/h (2 Bft) 97,87 %
29.01.2019 01:56 0,8 C 0,0 C -0,6 C 96 % 1004,0 hPa 0,0 l/m 0 min 0 min 0 W/m 6,4 km/h (2 Bft) 97,87 %
29.01.2019 01:58 0,7 C 0,0 C -0,6 C 96 % 1004,1 hPa 0,0 l/m 0 min 0 min 0 W/m 9,7 km/h (2 Bft) 97,83 %
29.01.2019 02:00 0,7 C 0,0 C -0,6 C 96 % 1004,1 hPa 0,0 l/m 0 min 0 min 0 W/m 9,7 km/h (2 Bft) 100,00 %
29.01.2019 02:02 0,7 C 0,0 C -0,6 C 96 % 1004,1 hPa 0,0 l/m 0 min 0 min 0 W/m 6,4 km/h (2 Bft) 100,00 %
29.01.2019 02:04 0,7 C 0,0 C -0,6 C 96 % 1004,1 hPa 0,0 l/m 0 min 0 min 0 W/m 6,4 km/h (2 Bft) 100,00 %
29.01.2019 02:06 0,7 C 0,0 C -0,6 C 96 % 1004,1 hPa 0,0 l/m 0 min 0 min 0 W/m 12,9 km/h (3 Bft) 97,87 %
29.01.2019 02:08 0,6 C 0,0 C -0,6 C 96 % 1004,2 hPa 0,0 l/m 0 min 0 min 0 W/m 3,2 km/h (1 Bft) 100,00 %
29.01.2019 02:10 0,6 C 0,0 C -0,6 C 96 % 1004,1 hPa 0,0 l/m 0 min 0 min 0 W/m 9,7 km/h (2 Bft) 100,00 %
29.01.2019 02:12 0,6 C 0,0 C -0,6 C 96 % 1004,2 hPa 0,0 l/m 0 min 0 min 0 W/m 6,4 km/h (2 Bft) 100,00 %
29.01.2019 02:14 0,6 C 0,0 C -0,6 C 96 % 1004,2 hPa 0,0 l/m 0 min 0 min 0 W/m 6,4 km/h (2 Bft) 97,87 %
29.01.2019 02:16 0,5 C 0,0 C -0,6 C 96 % 1004,2 hPa 0,0 l/m 0 min 0 min 0 W/m 12,9 km/h (3 Bft) 97,87 %
29.01.2019 02:18 0,5 C 0,0 C -0,6 C 96 % 1004,2 hPa 0,0 l/m 0 min 0 min 0 W/m 9,7 km/h (2 Bft) 100,00 %
29.01.2019 02:20 0,5 C 0,0 C -0,6 C 96 % 1004,3 hPa 0,0 l/m 0 min 0 min 0 W/m 9,7 km/h (2 Bft) 100,00 %
29.01.2019 02:22 0,5 C 0,0 C -0,6 C 96 % 1004,4 hPa 0,0 l/m 0 min 0 min 0 W/m 9,7 km/h (2 Bft) 100,00 %
29.01.2019 02:24 0,5 C 0,0 C -0,6 C 96 % 1004,4 hPa 0,0 l/m 0 min 0 min 0 W/m 6,4 km/h (2 Bft) 100,00 %
29.01.2019 02:26 0,5 C 0,0 C -0,6 C 96 % 1004,4 hPa 0,0 l/m 0 min 0 min 0 W/m 9,7 km/h (2 Bft) 100,00 %
29.01.2019 02:28 0,5 C 0,0 C -0,6 C 96 % 1004,4 hPa 0,0 l/m 0 min 0 min 0 W/m 9,7 km/h (2 Bft) 100,00 %
29.01.2019 02:30 0,5 C 0,0 C -0,6 C 96 % 1004,5 hPa 0,0 l/m 0 min 0 min 0 W/m 9,7 km/h (2 Bft) 100,00 %
29.01.2019 02:32 0,5 C 0,0 C -0,6 C 96 % 1004,4 hPa 0,0 l/m 0 min 0 min 0 W/m 9,7 km/h (2 Bft) 100,00 %
29.01.2019 02:34 0,5 C 0,0 C -0,6 C 96 % 1004,5 hPa 0,0 l/m 0 min 0 min 0 W/m 9,7 km/h (2 Bft) 97,83 %
29.01.2019 02:36 0,5 C 0,0 C -0,6 C 96 % 1004,5 hPa 0,0 l/m 0 min 0 min 0 W/m 9,7 km/h (2 Bft) 100,00 %
29.01.2019 02:38 0,5 C 0,0 C -0,6 C 96 % 1004,5 hPa 0,0 l/m 0 min 0 min 0 W/m 6,4 km/h (2 Bft) 97,87 %
29.01.2019 02:40 0,5 C 0,0 C -0,6 C 96 % 1004,5 hPa 0,0 l/m 0 min 0 min 0 W/m 22,5 km/h (4 Bft) 97,87 %
29.01.2019 02:42 0,5 C 0,0 C -0,6 C 96 % 1004,5 hPa 0,0 l/m 0 min 0 min 0 W/m 9,7 km/h (2 Bft) 97,87 %
29.01.2019 02:44 0,6 C 0,0 C -0,6 C 96 % 1004,5 hPa 0,0 l/m 0 min 0 min 0 W/m 6,4 km/h (2 Bft) 100,00 %
29.01.2019 02:46 0,6 C 0,0 C -0,6 C 96 % 1004,4 hPa 0,0 l/m 0 min 0 min 0 W/m 9,7 km/h (2 Bft) 100,00 %
29.01.2019 02:48 0,6 C 0,0 C -0,6 C 96 % 1004,5 hPa 0,0 l/m 0 min 0 min 0 W/m 16,1 km/h (3 Bft) 95,74 %
29.01.2019 02:50 0,6 C 0,0 C -0,6 C 96 % 1004,5 hPa 0,0 l/m 0 min 0 min 0 W/m 9,7 km/h (2 Bft) 97,87 %
29.01.2019 02:52 0,6 C 0,0 C -0,6 C 96 % 1004,6 hPa 0,0 l/m 0 min 0 min 0 W/m 6,4 km/h (2 Bft) 97,87 %
29.01.2019 02:54 0,6 C 0,0 C -0,6 C 96 % 1004,6 hPa 0,0 l/m 0 min 0 min 0 W/m 9,7 km/h (2 Bft) 97,87 %
29.01.2019 02:56 0,6 C 0,0 C -0,6 C 96 % 1004,6 hPa 0,0 l/m 0 min 0 min 0 W/m 9,7 km/h (2 Bft) 97,83 %
29.01.2019 02:58 0,6 C 0,0 C -0,6 C 96 % 1004,6 hPa 0,0 l/m 0 min 0 min 0 W/m 9,7 km/h (2 Bft) 97,87 %
29.01.2019 03:00 0,6 C 0,0 C -0,6 C 96 % 1004,5 hPa 0,0 l/m 0 min 0 min 0 W/m 6,4 km/h (2 Bft) 95,74 %
29.01.2019 03:02 0,6 C 0,0 C -0,6 C 96 % 1004,5 hPa 0,0 l/m 0 min 0 min 0 W/m 9,7 km/h (2 Bft) 95,74 %
29.01.2019 03:04 0,5 C 0,0 C -0,6 C 96 % 1004,6 hPa 0,0 l/m 0 min 0 min 0 W/m 6,4 km/h (2 Bft) 93,62 %
29.01.2019 03:06 0,6 C 0,0 C -0,6 C 96 % 1004,6 hPa 0,0 l/m 0 min 0 min 0 W/m 6,4 km/h (2 Bft) 96,15 %
29.01.2019 03:08 0,6 C 0,0 C -0,6 C 96 % 1004,6 hPa 0,0 l/m 0 min 0 min 0 W/m 12,9 km/h (3 Bft) 95,24 %
29.01.2019 03:10 0,6 C 0,0 C -0,6 C 96 % 1004,6 hPa 0,0 l/m 0 min 0 min 0 W/m 9,7 km/h (2 Bft) 95,65 %
29.01.2019 03:12 0,5 C 0,0 C -0,6 C 96 % 1004,6 hPa 0,0 l/m 0 min 0 min 0 W/m 6,4 km/h (2 Bft) 95,74 %
29.01.2019 03:14 0,6 C 0,0 C -0,6 C 96 % 1004,7 hPa 0,0 l/m 0 min 0 min 0 W/m 12,9 km/h (3 Bft) 93,62 %
29.01.2019 03:16 0,5 C 0,0 C -0,6 C 96 % 1004,7 hPa 0,0 l/m 0 min 0 min 0 W/m 6,4 km/h (2 Bft) 95,74 %
29.01.2019 03:18 0,5 C 0,0 C -0,6 C 96 % 1004,7 hPa 0,0 l/m 0 min 0 min 0 W/m 12,9 km/h (3 Bft) 95,74 %
29.01.2019 03:20 0,5 C 0,0 C -0,6 C 96 % 1004,7 hPa 0,0 l/m 0 min 0 min 0 W/m 6,4 km/h (2 Bft) 95,65 %
29.01.2019 03:22 0,5 C 0,0 C -0,6 C 96 % 1004,8 hPa 0,0 l/m 0 min 0 min 0 W/m 6,4 km/h (2 Bft) 93,62 %
29.01.2019 03:24 0,5 C 0,0 C -0,6 C 96 % 1004,8 hPa 0,0 l/m 0 min 0 min 0 W/m 6,4 km/h (2 Bft) 95,74 %
29.01.2019 03:26 0,5 C 0,0 C -0,6 C 96 % 1004,8 hPa 0,0 l/m 0 min 0 min 0 W/m 6,4 km/h (2 Bft) 95,74 %
29.01.2019 03:28 0,5 C 0,0 C -0,6 C 96 % 1004,8 hPa 0,0 l/m 0 min 0 min 0 W/m 6,4 km/h (2 Bft) 95,74 %
29.01.2019 03:30 0,5 C 0,0 C -0,6 C 96 % 1004,8 hPa 0,0 l/m 0 min 0 min 0 W/m 6,4 km/h (2 Bft) 95,74 %
29.01.2019 03:32 0,5 C 0,0 C -0,6 C 96 % 1004,9 hPa 0,0 l/m 0 min 0 min 0 W/m 6,4 km/h (2 Bft) 95,65 %
29.01.2019 03:34 0,5 C 0,0 C -0,6 C 96 % 1004,9 hPa 0,0 l/m 0 min 0 min 0 W/m 6,4 km/h (2 Bft) 95,74 %
29.01.2019 03:36 0,5 C 0,0 C -0,6 C 96 % 1004,9 hPa 0,0 l/m 0 min 0 min 0 W/m 3,2 km/h (1 Bft) 93,62 %
29.01.2019 03:38 0,5 C 0,0 C -0,6 C 96 % 1004,8 hPa 0,0 l/m 0 min 0 min 0 W/m 6,4 km/h (2 Bft) 96,30 %
29.01.2019 03:40 0,5 C 0,0 C -0,6 C 96 % 1004,8 hPa 0,0 l/m 0 min 0 min 0 W/m 6,4 km/h (2 Bft) 94,29 %
29.01.2019 03:42 0,5 C 0,0 C -0,6 C 96 % 1004,9 hPa 0,0 l/m 0 min 0 min 0 W/m 6,4 km/h (2 Bft) 95,74 %
29.01.2019 03:44 0,5 C 0,0 C -0,6 C 97 % 1004,9 hPa 0,0 l/m 0 min 0 min 0 W/m 9,7 km/h (2 Bft) 95,65 %
29.01.2019 03:46 0,5 C 0,0 C -0,6 C 97 % 1004,9 hPa 0,0 l/m 0 min 0 min 0 W/m 12,9 km/h (3 Bft) 95,74 %
29.01.2019 03:48 0,5 C 0,0 C -0,6 C 97 % 1004,9 hPa 0,0 l/m 0 min 0 min 0 W/m 9,7 km/h (2 Bft) 97,87 %
29.01.2019 03:50 0,5 C 0,0 C -0,6 C 97 % 1004,9 hPa 0,0 l/m 0 min 0 min 0 W/m 16,1 km/h (3 Bft) 95,74 %
29.01.2019 03:52 0,5 C 0,0 C -0,6 C 97 % 1004,9 hPa 0,0 l/m 0 min 0 min 0 W/m 6,4 km/h (2 Bft) 93,62 %
29.01.2019 03:54 0,5 C 0,0 C -0,6 C 97 % 1004,9 hPa 0,0 l/m 0 min 0 min 0 W/m 6,4 km/h (2 Bft) 95,74 %
29.01.2019 03:56 0,5 C 0,0 C -0,6 C 97 % 1004,8 hPa 0,0 l/m 0 min 0 min 0 W/m 6,4 km/h (2 Bft) 95,65 %
29.01.2019 03:58 0,5 C 0,0 C -0,6 C 97 % 1004,8 hPa 0,0 l/m 0 min 0 min 0 W/m 9,7 km/h (2 Bft) 100,00 %
29.01.2019 04:00 0,5 C 0,0 C -0,6 C 97 % 1004,9 hPa 0,0 l/m 0 min 0 min 0 W/m 6,4 km/h (2 Bft) 97,87 %
29.01.2019 04:05 0,5 C 0,0 C -0,6 C 97 % 1004,9 hPa 0,0 l/m 0 min 0 min 0 W/m 6,4 km/h (2 Bft) 93,62 %
29.01.2019 04:06 0,5 C 0,0 C -0,6 C 97 % 1004,9 hPa 0,0 l/m 0 min 0 min 0 W/m 3,2 km/h (1 Bft) 85,71 %
29.01.2019 04:08 0,5 C 0,0 C -0,6 C 97 % 1004,8 hPa 0,0 l/m 0 min 0 min 0 W/m 6,4 km/h (2 Bft) 97,87 %
29.01.2019 04:10 0,5 C 0,0 C -0,6 C 97 % 1004,8 hPa 0,0 l/m 0 min 0 min 0 W/m 9,7 km/h (2 Bft) 97,92 %
29.01.2019 04:12 0,5 C 0,0 C -0,6 C 97 % 1004,8 hPa 0,0 l/m 0 min 0 min 0 W/m 6,4 km/h (2 Bft) 97,87 %
29.01.2019 04:14 0,5 C 0,0 C -0,6 C 97 % 1004,9 hPa 0,0 l/m 0 min 0 min 0 W/m 6,4 km/h (2 Bft) 93,62 %
29.01.2019 04:16 0,5 C 0,0 C -0,6 C 97 % 1004,8 hPa 0,0 l/m 0 min 0 min 0 W/m 6,4 km/h (2 Bft) 95,74 %
29.01.2019 04:18 0,5 C 0,0 C -0,6 C 97 % 1004,9 hPa 0,0 l/m 0 min 0 min 0 W/m 6,4 km/h (2 Bft) 97,83 %
29.01.2019 04:20 0,5 C 0,0 C -0,6 C 97 % 1004,9 hPa 0,0 l/m 0 min 0 min 0 W/m 3,2 km/h (1 Bft) 95,74 %
29.01.2019 04:22 0,5 C 0,0 C -0,6 C 97 % 1004,9 hPa 0,0 l/m 0 min 0 min 0 W/m 0,0 km/h (0 Bft) 97,87 %
29.01.2019 04:24 0,5 C 0,0 C -0,6 C 97 % 1004,9 hPa 0,0 l/m 0 min 0 min 0 W/m 6,4 km/h (2 Bft) 97,87 %
29.01.2019 04:26 0,5 C 0,0 C -0,6 C 97 % 1004,8 hPa 0,0 l/m 0 min 0 min 0 W/m 6,4 km/h (2 Bft) 97,87 %
29.01.2019 04:28 0,5 C 0,0 C -0,6 C 97 % 1004,8 hPa 0,0 l/m 0 min 0 min 0 W/m 6,4 km/h (2 Bft) 97,83 %
29.01.2019 04:30 0,5 C 0,0 C -0,6 C 97 % 1004,8 hPa 0,0 l/m 0 min 0 min 0 W/m 9,7 km/h (2 Bft) 97,87 %
29.01.2019 04:32 0,5 C 0,0 C -0,6 C 97 % 1004,8 hPa 0,0 l/m 0 min 0 min 0 W/m 6,4 km/h (2 Bft) 97,87 %
29.01.2019 04:34 0,5 C 0,0 C -0,6 C 97 % 1004,8 hPa 0,0 l/m 0 min 0 min 0 W/m 12,9 km/h (3 Bft) 97,87 %
29.01.2019 04:36 0,5 C 0,0 C -0,6 C 97 % 1004,7 hPa 0,0 l/m 0 min 0 min 0 W/m 6,4 km/h (2 Bft) 95,74 %
29.01.2019 04:38 0,5 C 0,0 C -0,6 C 97 % 1004,8 hPa 0,0 l/m 0 min 0 min 0 W/m 6,4 km/h (2 Bft) 97,87 %
29.01.2019 04:40 0,5 C 0,0 C -0,6 C 97 % 1004,7 hPa 0,0 l/m 0 min 0 min 0 W/m 3,2 km/h (1 Bft) 100,00 %
29.01.2019 04:42 0,5 C 0,0 C -0,6 C 97 % 1004,8 hPa 0,0 l/m 0 min 0 min 0 W/m 6,4 km/h (2 Bft) 100,00 %
29.01.2019 04:44 0,5 C 0,0 C -0,6 C 97 % 1004,8 hPa 0,0 l/m 0 min 0 min 0 W/m 6,4 km/h (2 Bft) 100,00 %
29.01.2019 04:46 0,5 C 0,0 C -0,6 C 97 % 1004,8 hPa 0,0 l/m 0 min 0 min 0 W/m 6,4 km/h (2 Bft) 100,00 %
29.01.2019 04:48 0,5 C 0,0 C -0,6 C 97 % 1004,8 hPa 0,0 l/m 0 min 0 min 0 W/m 6,4 km/h (2 Bft) 93,62 %
29.01.2019 04:50 0,5 C -0,6 C -0,6 C 97 % 1004,9 hPa 0,0 l/m 0 min 0 min 0 W/m 6,4 km/h (2 Bft) 100,00 %
29.01.2019 04:52 0,5 C -0,6 C -1,1 C 97 % 1004,8 hPa 0,0 l/m 0 min 0 min 0 W/m 6,4 km/h (2 Bft) 100,00 %
29.01.2019 04:54 0,5 C -0,6 C -1,1 C 97 % 1004,8 hPa 0,0 l/m 0 min 0 min 0 W/m 6,4 km/h (2 Bft) 100,00 %
29.01.2019 04:56 0,5 C -0,6 C -0,6 C 97 % 1004,8 hPa 0,0 l/m 0 min 0 min 0 W/m 3,2 km/h (1 Bft) 100,00 %
29.01.2019 04:58 0,4 C -0,6 C -1,1 C 97 % 1004,8 hPa 0,0 l/m 0 min 0 min 0 W/m 6,4 km/h (2 Bft) 100,00 %
29.01.2019 05:00 0,4 C -0,6 C -1,1 C 97 % 1004,8 hPa 0,0 l/m 0 min 0 min 0 W/m 3,2 km/h (1 Bft) 97,87 %
29.01.2019 05:02 0,4 C -0,6 C -1,1 C 97 % 1004,8 hPa 0,0 l/m 0 min 0 min 0 W/m 3,2 km/h (1 Bft) 100,00 %
29.01.2019 05:04 0,4 C -0,6 C -1,1 C 97 % 1004,8 hPa 0,0 l/m 0 min 0 min 0 W/m 6,4 km/h (2 Bft) 100,00 %
29.01.2019 05:06 0,3 C -0,6 C -1,1 C 97 % 1004,8 hPa 0,0 l/m 0 min 0 min 0 W/m 3,2 km/h (1 Bft) 100,00 %
29.01.2019 05:08 0,3 C -0,6 C -1,1 C 97 % 1004,9 hPa 0,0 l/m 0 min 0 min 0 W/m 6,4 km/h (2 Bft) 100,00 %
29.01.2019 05:10 0,3 C -0,6 C -1,1 C 97 % 1004,8 hPa 0,0 l/m 0 min 0 min 0 W/m 9,7 km/h (2 Bft) 97,87 %
29.01.2019 05:12 0,3 C -0,6 C -1,1 C 97 % 1004,8 hPa 0,0 l/m 0 min 0 min 0 W/m 6,4 km/h (2 Bft) 100,00 %
29.01.2019 05:14 0,3 C -0,6 C -1,1 C 97 % 1004,8 hPa 0,0 l/m 0 min 0 min 0 W/m 3,2 km/h (1 Bft) 97,87 %
29.01.2019 05:16 0,3 C -0,6 C -1,1 C 97 % 1004,9 hPa 0,0 l/m 0 min 0 min 0 W/m 6,4 km/h (2 Bft) 100,00 %
29.01.2019 05:18 0,2 C -0,6 C -1,1 C 97 % 1004,8 hPa 0,0 l/m 0 min 0 min 0 W/m 6,4 km/h (2 Bft) 97,87 %
29.01.2019 05:20 0,2 C -0,6 C -1,1 C 97 % 1004,8 hPa 0,0 l/m 0 min 0 min 0 W/m 9,7 km/h (2 Bft) 100,00 %
29.01.2019 05:22 0,2 C -0,6 C -1,1 C 97 % 1004,9 hPa 0,0 l/m 0 min 0 min 0 W/m 3,2 km/h (1 Bft) 97,87 %
29.01.2019 05:24 0,2 C -0,6 C -1,1 C 97 % 1004,9 hPa 0,0 l/m 0 min 0 min 0 W/m 9,7 km/h (2 Bft) 100,00 %
29.01.2019 05:26 0,2 C -0,6 C -1,1 C 97 % 1005,0 hPa 0,0 l/m 0 min 0 min 0 W/m 9,7 km/h (2 Bft) 100,00 %
29.01.2019 05:28 0,2 C -0,6 C -1,1 C 97 % 1004,9 hPa 0,0 l/m 0 min 0 min 0 W/m 6,4 km/h (2 Bft) 95,65 %
29.01.2019 05:30 0,2 C -0,6 C -1,1 C 97 % 1004,9 hPa 0,0 l/m 0 min 0 min 0 W/m 9,7 km/h (2 Bft) 97,87 %
29.01.2019 05:32 0,2 C -0,6 C -1,1 C 97 % 1004,9 hPa 0,0 l/m 0 min 0 min 0 W/m 9,7 km/h (2 Bft) 97,92 %
29.01.2019 05:34 0,2 C -0,6 C -1,1 C 97 % 1005,0 hPa 0,0 l/m 0 min 0 min 0 W/m 9,7 km/h (2 Bft) 97,87 %
29.01.2019 05:36 0,2 C -0,6 C -1,1 C 97 % 1004,9 hPa 0,0 l/m 0 min 0 min 0 W/m 6,4 km/h (2 Bft) 100,00 %
29.01.2019 05:38 0,2 C -0,6 C -1,1 C 97 % 1004,8 hPa 0,0 l/m 0 min 0 min 0 W/m 6,4 km/h (2 Bft) 97,83 %
29.01.2019 05:40 0,2 C -0,6 C -1,1 C 97 % 1004,9 hPa 0,0 l/m 0 min 0 min 0 W/m 6,4 km/h (2 Bft) 97,87 %
29.01.2019 05:42 0,2 C -0,6 C -1,1 C 97 % 1004,8 hPa 0,0 l/m 0 min 0 min 0 W/m 6,4 km/h (2 Bft) 97,87 %
29.01.2019 05:44 0,2 C -0,6 C -1,1 C 97 % 1004,9 hPa 0,0 l/m 0 min 0 min 0 W/m 12,9 km/h (3 Bft) 97,87 %
29.01.2019 05:46 0,2 C -0,6 C -1,1 C 97 % 1004,9 hPa 0,0 l/m 0 min 0 min 0 W/m 6,4 km/h (2 Bft) 97,87 %
29.01.2019 05:48 0,2 C -0,6 C -1,1 C 97 % 1004,9 hPa 0,0 l/m 0 min 0 min 0 W/m 6,4 km/h (2 Bft) 97,87 %
29.01.2019 05:50 0,2 C -0,6 C -1,1 C 97 % 1004,9 hPa 0,0 l/m 0 min 0 min 0 W/m 6,4 km/h (2 Bft) 95,74 %
29.01.2019 05:52 0,1 C -0,6 C -1,1 C 97 % 1004,9 hPa 0,0 l/m 0 min 0 min 0 W/m 3,2 km/h (1 Bft) 97,83 %
29.01.2019 05:54 0,1 C -0,6 C -1,1 C 97 % 1004,8 hPa 0,0 l/m 0 min 0 min 0 W/m 3,2 km/h (1 Bft) 97,87 %
29.01.2019 05:56 0,1 C -0,6 C -1,1 C 97 % 1004,7 hPa 0,0 l/m 0 min 0 min 0 W/m 6,4 km/h (2 Bft) 95,74 %
29.01.2019 05:58 0,1 C -0,6 C -1,1 C 97 % 1004,9 hPa 0,0 l/m 0 min 0 min 0 W/m 3,2 km/h (1 Bft) 97,87 %
29.01.2019 06:00 0,1 C -0,6 C -1,1 C 97 % 1004,8 hPa 0,0 l/m 0 min 0 min 0 W/m 6,4 km/h (2 Bft) 97,87 %
29.01.2019 06:02 0,1 C -0,6 C -1,1 C 97 % 1004,9 hPa 0,0 l/m 0 min 0 min 0 W/m 6,4 km/h (2 Bft) 95,65 %
29.01.2019 06:04 0,1 C -0,6 C -1,1 C 97 % 1004,9 hPa 0,0 l/m 0 min 0 min 0 W/m 6,4 km/h (2 Bft) 97,87 %
29.01.2019 06:08 0,1 C -0,6 C -1,1 C 97 % 1004,9 hPa 0,0 l/m 0 min 0 min 0 W/m 6,4 km/h (2 Bft) 97,87 %
29.01.2019 06:10 0,0 C -0,6 C -1,1 C 97 % 1004,8 hPa 0,0 l/m 0 min 0 min 0 W/m 6,4 km/h (2 Bft) 95,74 %
29.01.2019 06:12 0,0 C -0,6 C -1,1 C 97 % 1004,8 hPa 0,0 l/m 0 min 0 min 0 W/m 3,2 km/h (1 Bft) 95,74 %
29.01.2019 06:14 0,0 C -0,6 C -1,1 C 97 % 1004,8 hPa 0,0 l/m 0 min 0 min 0 W/m 6,4 km/h (2 Bft) 97,83 %
29.01.2019 06:16 0,0 C -0,6 C -1,1 C 97 % 1004,8 hPa 0,0 l/m 0 min 0 min 0 W/m 9,7 km/h (2 Bft) 97,87 %
29.01.2019 06:18 0,0 C -0,6 C -1,1 C 97 % 1004,8 hPa 0,0 l/m 0 min 0 min 0 W/m 0,0 km/h (0 Bft) 97,87 %
29.01.2019 06:20 0,0 C -0,6 C -1,1 C 97 % 1004,8 hPa 0,0 l/m 0 min 0 min 0 W/m 9,7 km/h (2 Bft) 97,87 %
29.01.2019 06:22 0,0 C -0,6 C -1,1 C 97 % 1004,8 hPa 0,0 l/m 0 min 0 min 0 W/m 12,9 km/h (3 Bft) 97,87 %
29.01.2019 06:24 0,1 C 0,0 C -0,6 C 97 % 1004,8 hPa 0,0 l/m 0 min 0 min 0 W/m 3,2 km/h (1 Bft) 95,74 %
29.01.2019 06:26 0,1 C 0,0 C -0,6 C 97 % 1004,8 hPa 0,0 l/m 0 min 0 min 0 W/m 3,2 km/h (1 Bft) 97,83 %
29.01.2019 06:28 0,1 C 0,0 C -0,6 C 97 % 1004,8 hPa 0,0 l/m 0 min 0 min 0 W/m 6,4 km/h (2 Bft) 100,00 %
29.01.2019 06:30 0,1 C 0,0 C -0,6 C 97 % 1004,8 hPa 0,0 l/m 0 min 0 min 0 W/m 3,2 km/h (1 Bft) 97,87 %
29.01.2019 06:32 0,1 C 0,0 C -0,6 C 97 % 1004,8 hPa 0,0 l/m 0 min 0 min 0 W/m 6,4 km/h (2 Bft) 95,74 %
29.01.2019 06:34 0,2 C 0,0 C -0,6 C 97 % 1004,8 hPa 0,0 l/m 0 min 0 min 0 W/m 3,2 km/h (1 Bft) 95,74 %
29.01.2019 06:36 0,2 C 0,0 C -0,6 C 97 % 1004,8 hPa 0,0 l/m 0 min 0 min 0 W/m 3,2 km/h (1 Bft) 95,74 %
29.01.2019 06:38 0,2 C 0,0 C -0,6 C 97 % 1004,8 hPa 0,0 l/m 0 min 0 min 0 W/m 6,4 km/h (2 Bft) 93,48 %
29.01.2019 06:40 0,2 C 0,0 C -0,6 C 97 % 1004,8 hPa 0,0 l/m 0 min 0 min 0 W/m 3,2 km/h (1 Bft) 95,74 %
29.01.2019 06:42 0,2 C -0,6 C -1,1 C 97 % 1004,7 hPa 0,0 l/m 0 min 0 min 0 W/m 3,2 km/h (1 Bft) 91,49 %
29.01.2019 06:44 0,2 C 0,0 C -1,1 C 97 % 1004,8 hPa 0,0 l/m 0 min 0 min 0 W/m 6,4 km/h (2 Bft) 93,62 %
29.01.2019 06:46 0,2 C 0,0 C -1,1 C 97 % 1004,6 hPa 0,0 l/m 0 min 0 min 0 W/m 9,7 km/h (2 Bft) 95,74 %
29.01.2019 06:48 0,2 C -0,6 C -1,1 C 97 % 1004,6 hPa 0,0 l/m 0 min 0 min 0 W/m 6,4 km/h (2 Bft) 95,74 %
29.01.2019 06:50 0,2 C -0,6 C -1,1 C 97 % 1004,7 hPa 0,0 l/m 0 min 0 min 0 W/m 3,2 km/h (1 Bft) 95,65 %
29.01.2019 06:52 0,2 C -0,6 C -1,1 C 97 % 1004,6 hPa 0,0 l/m 0 min 0 min 0 W/m 0,0 km/h (0 Bft) 95,74 %
29.01.2019 06:54 0,2 C -0,6 C -1,1 C 97 % 1004,6 hPa 0,0 l/m 0 min 0 min 0 W/m 0,0 km/h (0 Bft) 93,62 %
29.01.2019 06:56 0,2 C -0,6 C -1,1 C 97 % 1004,6 hPa 0,0 l/m 0 min 0 min 0 W/m 3,2 km/h (1 Bft) 93,62 %
29.01.2019 06:58 0,2 C -0,6 C -1,1 C 97 % 1004,6 hPa 0,0 l/m 0 min 0 min 0 W/m 0,0 km/h (0 Bft) 95,74 %
29.01.2019 07:00 0,2 C -0,6 C -1,1 C 97 % 1004,6 hPa 0,0 l/m 0 min 0 min 0 W/m 3,2 km/h (1 Bft) 95,65 %
29.01.2019 07:02 0,2 C -0,6 C -1,1 C 97 % 1004,6 hPa 0,0 l/m 0 min 0 min 0 W/m 6,4 km/h (2 Bft) 95,74 %
29.01.2019 07:04 0,2 C -0,6 C -1,1 C 97 % 1004,6 hPa 0,0 l/m 0 min 0 min 0 W/m 3,2 km/h (1 Bft) 95,74 %
29.01.2019 07:06 0,2 C -0,6 C -1,1 C 97 % 1004,6 hPa 0,0 l/m 0 min 0 min 0 W/m 0,0 km/h (0 Bft) 93,62 %
29.01.2019 07:08 0,2 C -0,6 C -1,1 C 97 % 1004,7 hPa 0,0 l/m 0 min 0 min 0 W/m 3,2 km/h (1 Bft) 95,74 %
29.01.2019 07:10 0,2 C -0,6 C -1,1 C 97 % 1004,6 hPa 0,0 l/m 0 min 0 min 0 W/m 3,2 km/h (1 Bft) 95,74 %
29.01.2019 07:12 0,2 C -0,6 C -1,1 C 97 % 1004,6 hPa 0,0 l/m 0 min 0 min 0 W/m 3,2 km/h (1 Bft) 95,65 %
29.01.2019 07:14 0,2 C -0,6 C -1,1 C 97 % 1004,6 hPa 0,0 l/m 0 min 0 min 0 W/m 3,2 km/h (1 Bft) 93,62 %
29.01.2019 07:16 0,1 C -0,6 C -1,1 C 97 % 1004,6 hPa 0,0 l/m 0 min 0 min 0 W/m 3,2 km/h (1 Bft) 97,87 %
29.01.2019 07:18 0,1 C -0,6 C -1,1 C 97 % 1004,7 hPa 0,0 l/m 0 min 0 min 0 W/m 3,2 km/h (1 Bft) 95,74 %
29.01.2019 07:20 0,1 C -0,6 C -1,1 C 97 % 1004,7 hPa 0,0 l/m 0 min 0 min 0 W/m 0,0 km/h (0 Bft) 95,74 %
29.01.2019 07:22 0,1 C -0,6 C -1,1 C 97 % 1004,7 hPa 0,0 l/m 0 min 0 min 0 W/m 3,2 km/h (1 Bft) 93,62 %
29.01.2019 07:24 0,1 C 0,0 C -0,6 C 97 % 1004,7 hPa 0,0 l/m 0 min 0 min 0 W/m 6,4 km/h (2 Bft) 95,65 %
29.01.2019 07:26 0,1 C 0,0 C -0,6 C 97 % 1004,7 hPa 0,0 l/m 0 min 0 min 0 W/m 3,2 km/h (1 Bft) 97,87 %
29.01.2019 07:28 0,1 C 0,0 C -0,6 C 97 % 1004,7 hPa 0,0 l/m 0 min 0 min 0 W/m 3,2 km/h (1 Bft) 97,87 %
29.01.2019 07:30 0,2 C 0,0 C -0,6 C 97 % 1004,7 hPa 0,0 l/m 0 min 0 min 0 W/m 0,0 km/h (0 Bft) 97,87 %
29.01.2019 07:32 0,2 C 0,0 C -0,6 C 97 % 1004,7 hPa 0,0 l/m 0 min 0 min 0 W/m 0,0 km/h (0 Bft) 100,00 %
29.01.2019 07:34 0,2 C 0,0 C -0,6 C 97 % 1004,7 hPa 0,0 l/m 0 min 0 min 0 W/m 3,2 km/h (1 Bft) 100,00 %
29.01.2019 07:36 0,2 C 0,0 C -0,6 C 97 % 1004,8 hPa 0,0 l/m 0 min 0 min 0 W/m 0,0 km/h (0 Bft) 100,00 %
29.01.2019 07:38 0,2 C 0,0 C -0,6 C 97 % 1004,8 hPa 0,0 l/m 0 min 0 min 0 W/m 0,0 km/h (0 Bft) 100,00 %
29.01.2019 07:40 0,2 C 0,0 C -0,6 C 97 % 1004,8 hPa 0,0 l/m 0 min 0 min 0 W/m 0,0 km/h (0 Bft) 100,00 %
29.01.2019 07:42 0,2 C 0,0 C -0,6 C 97 % 1004,8 hPa 0,0 l/m 0 min 0 min 0 W/m 0,0 km/h (0 Bft) 100,00 %
29.01.2019 07:44 0,2 C 0,0 C -0,6 C 97 % 1004,8 hPa 0,0 l/m 0 min 0 min 0 W/m 0,0 km/h (0 Bft) 100,00 %
29.01.2019 07:46 0,2 C 0,0 C -0,6 C 97 % 1004,8 hPa 0,0 l/m 0 min 0 min 0 W/m 0,0 km/h (0 Bft) 97,83 %
29.01.2019 07:48 0,2 C 0,0 C -0,6 C 97 % 1004,9 hPa 0,0 l/m 0 min 0 min 0 W/m 0,0 km/h (0 Bft) 100,00 %
29.01.2019 07:50 0,3 C 0,0 C -0,6 C 97 % 1004,8 hPa 0,0 l/m 0 min 0 min 0 W/m 0,0 km/h (0 Bft) 100,00 %
29.01.2019 07:52 0,3 C 0,0 C -0,6 C 97 % 1004,9 hPa 0,0 l/m 0 min 0 min 0 W/m 0,0 km/h (0 Bft) 97,87 %
29.01.2019 07:54 0,3 C 0,0 C -0,6 C 97 % 1004,9 hPa 0,0 l/m 0 min 0 min 0 W/m 0,0 km/h (0 Bft) 97,87 %
29.01.2019 07:56 0,3 C 0,0 C -0,6 C 97 % 1004,9 hPa 0,0 l/m 0 min 0 min 0 W/m 0,0 km/h (0 Bft) 97,87 %
29.01.2019 07:58 0,3 C 0,0 C -0,6 C 97 % 1004,9 hPa 0,0 l/m 0 min 0 min 0 W/m 0,0 km/h (0 Bft) 97,83 %
29.01.2019 08:00 0,3 C 0,0 C -0,6 C 97 % 1004,9 hPa 0,0 l/m 0 min 0 min 0 W/m 6,4 km/h (2 Bft) 97,87 %
29.01.2019 08:02 0,4 C 0,0 C -0,6 C 97 % 1005,0 hPa 0,0 l/m 0 min 0 min 0 W/m 6,4 km/h (2 Bft) 100,00 %
29.01.2019 08:04 0,4 C 0,0 C -0,6 C 97 % 1005,0 hPa 0,0 l/m 0 min 0 min 0 W/m 3,2 km/h (1 Bft) 95,74 %
29.01.2019 08:06 0,4 C 0,6 C -0,6 C 97 % 1004,9 hPa 0,0 l/m 0 min 0 min 0 W/m 6,4 km/h (2 Bft) 95,74 %
29.01.2019 08:08 0,4 C 0,0 C -0,6 C 97 % 1005,0 hPa 0,0 l/m 0 min 0 min 0 W/m 3,2 km/h (1 Bft) 100,00 %
29.01.2019 08:10 0,4 C 0,6 C -0,6 C 97 % 1004,9 hPa 0,0 l/m 0 min 0 min 0 W/m 6,4 km/h (2 Bft) 100,00 %
29.01.2019 08:12 0,5 C 0,6 C -0,6 C 97 % 1004,9 hPa 0,0 l/m 0 min 0 min 0 W/m 9,7 km/h (2 Bft) 97,87 %
29.01.2019 08:14 0,5 C 0,0 C -0,6 C 97 % 1004,9 hPa 0,0 l/m 0 min 0 min 0 W/m 6,4 km/h (2 Bft) 93,88 %
29.01.2019 08:16 0,5 C 0,0 C -0,6 C 97 % 1004,9 hPa 0,0 l/m 0 min 0 min 0 W/m 16,1 km/h (3 Bft) 97,87 %
29.01.2019 08:18 0,5 C 0,6 C -0,6 C 97 % 1004,8 hPa 0,0 l/m 0 min 0 min 0 W/m 6,4 km/h (2 Bft) 95,74 %
29.01.2019 08:20 0,5 C 0,0 C -0,6 C 97 % 1004,9 hPa 0,0 l/m 0 min 0 min 4 W/m 6,4 km/h (2 Bft) 97,87 %
29.01.2019 08:22 0,5 C 0,0 C -0,6 C 97 % 1004,9 hPa 0,0 l/m 0 min 0 min 5 W/m 3,2 km/h (1 Bft) 97,83 %
29.01.2019 08:24 0,5 C 0,0 C -0,6 C 97 % 1004,8 hPa 0,0 l/m 0 min 0 min 6 W/m 6,4 km/h (2 Bft) 97,87 %
29.01.2019 08:26 0,5 C 0,0 C -0,6 C 97 % 1004,8 hPa 0,0 l/m 0 min 0 min 8 W/m 6,4 km/h (2 Bft) 97,87 %
29.01.2019 08:28 0,5 C 0,0 C -0,6 C 97 % 1004,8 hPa 0,0 l/m 0 min 0 min 10 W/m 9,7 km/h (2 Bft) 97,87 %
29.01.2019 08:30 0,5 C 0,0 C -0,6 C 97 % 1004,8 hPa 0,0 l/m 0 min 0 min 13 W/m 3,2 km/h (1 Bft) 97,87 %
29.01.2019 08:32 0,5 C 0,0 C -0,6 C 97 % 1004,8 hPa 0,0 l/m 0 min 0 min 16 W/m 6,4 km/h (2 Bft) 95,74 %
29.01.2019 08:34 0,5 C 0,6 C -0,6 C 97 % 1004,8 hPa 0,0 l/m 0 min 0 min 17 W/m 9,7 km/h (2 Bft) 95,65 %
29.01.2019 08:36 0,5 C 0,6 C 0,0 C 97 % 1004,8 hPa 0,0 l/m 0 min 0 min 17 W/m 12,9 km/h (3 Bft) 97,87 %
29.01.2019 08:38 0,5 C 0,6 C 0,0 C 97 % 1004,9 hPa 0,0 l/m 0 min 0 min 16 W/m 12,9 km/h (3 Bft) 95,74 %
29.01.2019 08:40 0,5 C 0,6 C 0,0 C 97 % 1004,8 hPa 0,0 l/m 0 min 0 min 17 W/m 3,2 km/h (1 Bft) 95,74 %
29.01.2019 08:42 0,5 C 0,6 C 0,0 C 97 % 1004,8 hPa 0,0 l/m 0 min 0 min 18 W/m 6,4 km/h (2 Bft) 97,87 %
29.01.2019 08:44 0,5 C 0,6 C 0,0 C 97 % 1004,9 hPa 0,0 l/m 0 min 0 min 18 W/m 6,4 km/h (2 Bft) 100,00 %
29.01.2019 08:46 0,5 C 0,6 C 0,0 C 97 % 1004,8 hPa 0,0 l/m 0 min 0 min 21 W/m 6,4 km/h (2 Bft) 97,87 %
29.01.2019 08:48 0,6 C 0,6 C 0,0 C 97 % 1004,8 hPa 0,0 l/m 0 min 0 min 26 W/m 6,4 km/h (2 Bft) 97,87 %
29.01.2019 08:50 0,6 C 0,6 C 0,0 C 97 % 1004,8 hPa 0,0 l/m 0 min 0 min 29 W/m 6,4 km/h (2 Bft) 97,87 %
29.01.2019 08:52 0,6 C 0,6 C 0,0 C 97 % 1004,7 hPa 0,0 l/m 0 min 0 min 32 W/m 3,2 km/h (1 Bft) 97,87 %
29.01.2019 08:54 0,6 C 0,6 C 0,0 C 97 % 1004,7 hPa 0,0 l/m 0 min 0 min 35 W/m 6,4 km/h (2 Bft) 97,87 %
29.01.2019 08:56 0,6 C 0,6 C 0,0 C 97 % 1004,7 hPa 0,0 l/m 0 min 0 min 35 W/m 6,4 km/h (2 Bft) 95,65 %
29.01.2019 08:58 0,6 C 0,6 C 0,0 C 97 % 1004,7 hPa 0,0 l/m 0 min 0 min 35 W/m 6,4 km/h (2 Bft) 100,00 %
29.01.2019 09:00 0,6 C 0,6 C 0,0 C 97 % 1004,6 hPa 0,0 l/m 0 min 0 min 37 W/m 6,4 km/h (2 Bft) 100,00 %
29.01.2019 09:02 0,6 C 0,6 C 0,0 C 97 % 1004,7 hPa 0,0 l/m 0 min 0 min 36 W/m 9,7 km/h (2 Bft) 97,87 %
29.01.2019 09:04 0,6 C 0,6 C 0,0 C 97 % 1004,7 hPa 0,0 l/m 0 min 0 min 35 W/m 9,7 km/h (2 Bft) 97,87 %
29.01.2019 09:06 0,7 C 0,6 C 0,0 C 97 % 1004,7 hPa 0,0 l/m 0 min 0 min 36 W/m 6,4 km/h (2 Bft) 97,87 %
29.01.2019 09:08 0,6 C 0,6 C 0,0 C 97 % 1004,8 hPa 0,0 l/m 0 min 0 min 40 W/m 6,4 km/h (2 Bft) 93,48 %
29.01.2019 09:10 0,7 C 0,6 C 0,0 C 97 % 1004,8 hPa 0,0 l/m 0 min 0 min 44 W/m 6,4 km/h (2 Bft) 98,00 %
29.01.2019 09:12 0,7 C 1,1 C 0,0 C 97 % 1004,7 hPa 0,0 l/m 0 min 0 min 49 W/m 9,7 km/h (2 Bft) 93,62 %
29.01.2019 09:14 0,7 C 1,1 C 0,0 C 97 % 1004,7 hPa 0,0 l/m 0 min 0 min 49 W/m 9,7 km/h (2 Bft) 95,74 %
29.01.2019 09:16 0,7 C 1,1 C 0,0 C 98 % 1004,7 hPa 0,0 l/m 0 min 0 min 48 W/m 12,9 km/h (3 Bft) 97,87 %
29.01.2019 09:18 0,7 C 1,1 C 0,0 C 98 % 1004,7 hPa 0,0 l/m 0 min 0 min 45 W/m 6,4 km/h (2 Bft) 97,83 %
29.01.2019 09:20 0,7 C 1,1 C 0,0 C 98 % 1004,7 hPa 0,0 l/m 0 min 0 min 42 W/m 6,4 km/h (2 Bft) 97,87 %
29.01.2019 09:22 0,7 C 1,1 C 0,0 C 98 % 1004,7 hPa 0,0 l/m 0 min 0 min 44 W/m 9,7 km/h (2 Bft) 97,87 %
29.01.2019 09:24 0,8 C 1,1 C 0,0 C 98 % 1004,7 hPa 0,0 l/m 0 min 0 min 46 W/m 6,4 km/h (2 Bft) 95,74 %
29.01.2019 09:26 0,8 C 1,1 C 0,0 C 98 % 1004,8 hPa 0,0 l/m 0 min 0 min 47 W/m 6,4 km/h (2 Bft) 97,87 %
29.01.2019 09:28 0,8 C 1,1 C 0,0 C 98 % 1004,7 hPa 0,0 l/m 0 min 0 min 50 W/m 6,4 km/h (2 Bft) 97,87 %
29.01.2019 09:30 0,8 C 1,1 C 0,0 C 98 % 1004,8 hPa 0,0 l/m 0 min 0 min 53 W/m 9,7 km/h (2 Bft) 95,74 %
29.01.2019 09:32 0,8 C 1,1 C 0,0 C 98 % 1004,7 hPa 0,0 l/m 0 min 0 min 54 W/m 9,7 km/h (2 Bft) 100,00 %
29.01.2019 09:34 0,8 C 1,7 C 0,6 C 98 % 1004,7 hPa 0,0 l/m 0 min 0 min 61 W/m 9,7 km/h (2 Bft) 95,74 %
29.01.2019 09:36 0,8 C 2,2 C 0,6 C 98 % 1004,6 hPa 0,0 l/m 0 min 0 min 88 W/m 16,1 km/h (3 Bft) 98,31 %
29.01.2019 09:38 0,8 C 2,2 C 0,6 C 98 % 1004,6 hPa 0,0 l/m 2 min 0 min 96 W/m 6,4 km/h (2 Bft) 97,22 %
29.01.2019 09:40 0,9 C 2,2 C 0,6 C 98 % 1004,7 hPa 0,0 l/m 2 min 0 min 98 W/m 3,2 km/h (1 Bft) 95,74 %
29.01.2019 09:42 0,9 C 2,2 C 0,6 C 98 % 1004,6 hPa 0,0 l/m 0 min 0 min 75 W/m 6,4 km/h (2 Bft) 97,87 %
29.01.2019 09:44 0,9 C 1,7 C 0,6 C 98 % 1004,6 hPa 0,0 l/m 0 min 0 min 67 W/m 9,7 km/h (2 Bft) 97,87 %
29.01.2019 09:46 1,0 C 1,7 C 0,6 C 98 % 1004,6 hPa 0,0 l/m 0 min 0 min 68 W/m 6,4 km/h (2 Bft) 97,83 %
29.01.2019 09:48 1,0 C 1,7 C 0,6 C 98 % 1004,6 hPa 0,0 l/m 0 min 0 min 73 W/m 9,7 km/h (2 Bft) 100,00 %
29.01.2019 09:50 1,0 C 1,7 C 0,6 C 98 % 1004,6 hPa 0,0 l/m 0 min 0 min 80 W/m 12,9 km/h (3 Bft) 100,00 %
29.01.2019 09:52 1,1 C 2,2 C 1,1 C 98 % 1004,6 hPa 0,0 l/m 0 min 0 min 87 W/m 12,9 km/h (3 Bft) 93,62 %
29.01.2019 09:54 1,1 C 2,2 C 1,1 C 98 % 1004,6 hPa 0,0 l/m 0 min 0 min 105 W/m 6,4 km/h (2 Bft) 95,74 %
29.01.2019 09:56 1,1 C 2,2 C 1,1 C 98 % 1004,6 hPa 0,0 l/m 2 min 0 min 117 W/m 6,4 km/h (2 Bft) 97,83 %
29.01.2019 09:58 1,2 C 2,2 C 1,1 C 98 % 1004,5 hPa 0,0 l/m 0 min 0 min 98 W/m 19,3 km/h (3 Bft) 97,87 %
29.01.2019 10:00 1,2 C 2,2 C 1,1 C 98 % 1004,5 hPa 0,0 l/m 0 min 0 min 97 W/m 19,3 km/h (3 Bft) 97,87 %
29.01.2019 10:02 1,2 C 2,2 C 1,1 C 98 % 1004,5 hPa 0,0 l/m 0 min 0 min 84 W/m 16,1 km/h (3 Bft) 95,83 %
29.01.2019 10:04 1,2 C 2,2 C 1,1 C 98 % 1004,5 hPa 0,0 l/m 0 min 0 min 74 W/m 9,7 km/h (2 Bft) 97,87 %
29.01.2019 10:06 1,2 C 1,7 C 1,1 C 98 % 1004,5 hPa 0,0 l/m 0 min 0 min 69 W/m 12,9 km/h (3 Bft) 96,55 %
29.01.2019 10:08 1,3 C 1,7 C 1,1 C 98 % 1004,4 hPa 0,0 l/m 0 min 0 min 68 W/m 12,9 km/h (3 Bft) 100,00 %
29.01.2019 10:10 1,3 C 1,7 C 1,1 C 98 % 1004,4 hPa 0,0 l/m 0 min 0 min 70 W/m 9,7 km/h (2 Bft) 95,74 %
29.01.2019 10:12 1,3 C 1,7 C 1,1 C 98 % 1004,4 hPa 0,0 l/m 0 min 0 min 74 W/m 9,7 km/h (2 Bft) 97,87 %
29.01.2019 10:14 1,3 C 1,7 C 1,1 C 98 % 1004,5 hPa 0,0 l/m 0 min 0 min 80 W/m 12,9 km/h (3 Bft) 93,62 %
29.01.2019 10:16 1,3 C 2,2 C 1,1 C 98 % 1004,5 hPa 0,0 l/m 0 min 0 min 88 W/m 6,4 km/h (2 Bft) 97,87 %
29.01.2019 10:18 1,3 C 2,2 C 1,1 C 98 % 1004,4 hPa 0,0 l/m 0 min 0 min 99 W/m 9,7 km/h (2 Bft) 97,83 %
29.01.2019 10:20 1,3 C 2,2 C 1,1 C 98 % 1004,5 hPa 0,0 l/m 0 min 0 min 102 W/m 12,9 km/h (3 Bft) 97,96 %
29.01.2019 10:22 1,3 C 2,2 C 1,1 C 98 % 1004,4 hPa 0,0 l/m 0 min 0 min 97 W/m 9,7 km/h (2 Bft) 97,87 %
29.01.2019 10:24 1,4 C 2,2 C 1,1 C 98 % 1004,4 hPa 0,0 l/m 0 min 0 min 91 W/m 9,7 km/h (2 Bft) 97,87 %
29.01.2019 10:26 1,4 C 2,2 C 1,7 C 98 % 1004,4 hPa 0,0 l/m 0 min 0 min 93 W/m 6,4 km/h (2 Bft) 97,87 %
29.01.2019 10:28 1,4 C 2,2 C 1,7 C 98 % 1004,3 hPa 0,0 l/m 0 min 0 min 93 W/m 6,4 km/h (2 Bft) 97,87 %
29.01.2019 10:30 1,4 C 2,2 C 1,7 C 98 % 1004,4 hPa 0,0 l/m 0 min 0 min 90 W/m 12,9 km/h (3 Bft) 95,74 %
29.01.2019 10:32 1,5 C 2,2 C 1,7 C 98 % 1004,3 hPa 0,0 l/m 0 min 0 min 93 W/m 9,7 km/h (2 Bft) 97,83 %
29.01.2019 10:34 1,5 C 2,2 C 1,7 C 98 % 1004,2 hPa 0,0 l/m 0 min 0 min 106 W/m 6,4 km/h (2 Bft) 97,87 %
29.01.2019 10:36 1,5 C 2,8 C 1,7 C 98 % 1004,2 hPa 0,0 l/m 0 min 0 min 126 W/m 12,9 km/h (3 Bft) 97,87 %
29.01.2019 10:38 1,6 C 2,8 C 1,7 C 98 % 1004,1 hPa 0,0 l/m 0 min 0 min 136 W/m 6,4 km/h (2 Bft) 97,87 %
29.01.2019 10:40 1,6 C 3,3 C 2,2 C 98 % 1004,2 hPa 0,0 l/m 0 min 0 min 136 W/m 9,7 km/h (2 Bft) 97,87 %
29.01.2019 10:42 1,6 C 3,3 C 1,7 C 98 % 1004,1 hPa 0,0 l/m 0 min 0 min 146 W/m 9,7 km/h (2 Bft) 100,00 %
29.01.2019 10:44 1,7 C 2,8 C 1,7 C 98 % 1004,1 hPa 0,0 l/m 0 min 0 min 127 W/m 12,9 km/h (3 Bft) 97,87 %
29.01.2019 10:46 1,7 C 2,8 C 1,7 C 98 % 1004,1 hPa 0,0 l/m 0 min 0 min 116 W/m 9,7 km/h (2 Bft) 97,87 %
29.01.2019 10:48 1,7 C 2,8 C 1,7 C 98 % 1004,0 hPa 0,0 l/m 0 min 0 min 111 W/m 9,7 km/h (2 Bft) 95,74 %
29.01.2019 10:50 1,8 C 3,9 C 1,7 C 98 % 1004,0 hPa 0,0 l/m 0 min 0 min 143 W/m 6,4 km/h (2 Bft) 95,74 %
29.01.2019 10:52 1,8 C 5,0 C 1,7 C 98 % 1004,0 hPa 0,0 l/m 2 min 0 min 238 W/m 12,9 km/h (3 Bft) 97,87 %
29.01.2019 10:54 1,8 C 5,6 C 1,7 C 98 % 1004,0 hPa 0,0 l/m 2 min 0 min 244 W/m 19,3 km/h (3 Bft) 97,83 %
29.01.2019 10:56 1,9 C 6,1 C 2,2 C 97 % 1004,0 hPa 0,0 l/m 2 min 0 min 235 W/m 12,9 km/h (3 Bft) 95,74 %
29.01.2019 10:58 2,0 C 5,6 C 2,2 C 97 % 1004,0 hPa 0,0 l/m 2 min 0 min 227 W/m 16,1 km/h (3 Bft) 97,87 %
29.01.2019 11:00 2,1 C 5,6 C 2,2 C 98 % 1004,0 hPa 0,0 l/m 2 min 0 min 211 W/m 16,1 km/h (3 Bft) 97,87 %
29.01.2019 11:02 2,2 C 6,1 C 2,2 C 98 % 1003,9 hPa 0,0 l/m 2 min 0 min 194 W/m 6,4 km/h (2 Bft) 97,87 %
29.01.2019 11:04 2,2 C 5,6 C 2,2 C 98 % 1003,9 hPa 0,0 l/m 2 min 0 min 216 W/m 9,7 km/h (2 Bft) 100,00 %
29.01.2019 11:06 2,3 C 5,0 C 2,2 C 98 % 1003,9 hPa 0,0 l/m 2 min 0 min 212 W/m 16,1 km/h (3 Bft) 100,00 %
29.01.2019 11:08 2,4 C 4,4 C 2,2 C 98 % 1003,9 hPa 0,0 l/m 2 min 0 min 222 W/m 19,3 km/h (3 Bft) 100,00 %
29.01.2019 11:10 2,4 C 5,6 C 2,2 C 98 % 1003,9 hPa 0,0 l/m 2 min 0 min 183 W/m 16,1 km/h (3 Bft) 97,87 %
29.01.2019 11:12 2,4 C 6,1 C 2,2 C 98 % 1003,9 hPa 0,0 l/m 2 min 0 min 182 W/m 19,3 km/h (3 Bft) 100,00 %
29.01.2019 11:14 2,5 C 6,1 C 2,2 C 97 % 1003,9 hPa 0,0 l/m 2 min 0 min 202 W/m 19,3 km/h (3 Bft) 100,00 %
29.01.2019 11:16 2,6 C 6,1 C 2,2 C 97 % 1003,9 hPa 0,0 l/m 2 min 0 min 211 W/m 16,1 km/h (3 Bft) 100,00 %
29.01.2019 11:18 2,6 C 6,1 C 2,8 C 97 % 1003,9 hPa 0,0 l/m 2 min 0 min 254 W/m 19,3 km/h (3 Bft) 97,83 %
29.01.2019 11:20 2,7 C 5,6 C 2,2 C 97 % 1003,9 hPa 0,0 l/m 2 min 0 min 251 W/m 19,3 km/h (3 Bft) 97,87 %
29.01.2019 11:22 2,7 C 5,6 C 2,2 C 97 % 1003,9 hPa 0,0 l/m 2 min 0 min 246 W/m 22,5 km/h (4 Bft) 95,74 %
29.01.2019 11:24 2,8 C 6,1 C 2,8 C 97 % 1003,9 hPa 0,0 l/m 2 min 0 min 251 W/m 22,5 km/h (4 Bft) 97,87 %
29.01.2019 11:26 2,8 C 6,1 C 2,8 C 96 % 1003,9 hPa 0,0 l/m 2 min 0 min 266 W/m 22,5 km/h (4 Bft) 97,87 %
29.01.2019 11:28 2,9 C 6,1 C 2,8 C 96 % 1003,9 hPa 0,0 l/m 2 min 0 min 238 W/m 22,5 km/h (4 Bft) 93,62 %
29.01.2019 11:30 2,9 C 6,1 C 2,8 C 95 % 1003,9 hPa 0,0 l/m 2 min 0 min 216 W/m 22,5 km/h (4 Bft) 95,65 %
29.01.2019 11:32 3,0 C 6,7 C 2,8 C 95 % 1003,8 hPa 0,0 l/m 2 min 0 min 265 W/m 19,3 km/h (3 Bft) 95,74 %
29.01.2019 11:34 3,1 C 6,7 C 2,8 C 94 % 1003,8 hPa 0,0 l/m 2 min 0 min 310 W/m 22,5 km/h (4 Bft) 93,62 %
29.01.2019 11:36 3,2 C 7,2 C 3,3 C 94 % 1003,8 hPa 0,0 l/m 2 min 0 min 337 W/m 19,3 km/h (3 Bft) 95,74 %
29.01.2019 11:38 3,2 C 7,2 C 3,3 C 93 % 1003,8 hPa 0,0 l/m 2 min 0 min 271 W/m 16,1 km/h (3 Bft) 93,62 %
29.01.2019 11:40 3,3 C 6,7 C 2,8 C 92 % 1003,8 hPa 0,0 l/m 2 min 0 min 287 W/m 22,5 km/h (4 Bft) 93,48 %
29.01.2019 11:42 3,3 C 6,1 C 2,8 C 91 % 1003,7 hPa 0,0 l/m 2 min 0 min 248 W/m 22,5 km/h (4 Bft) 95,74 %
29.01.2019 11:44 3,4 C 5,6 C 2,8 C 89 % 1003,7 hPa 0,0 l/m 2 min 0 min 228 W/m 22,5 km/h (4 Bft) 95,74 %
29.01.2019 11:46 3,4 C 6,7 C 2,8 C 88 % 1003,6 hPa 0,0 l/m 2 min 0 min 301 W/m 16,1 km/h (3 Bft) 87,23 %
29.01.2019 11:48 3,4 C 7,8 C 2,8 C 88 % 1003,6 hPa 0,0 l/m 2 min 0 min 319 W/m 9,7 km/h (2 Bft) 97,87 %
29.01.2019 11:50 3,5 C 7,2 C 2,8 C 87 % 1003,6 hPa 0,0 l/m 2 min 0 min 317 W/m 22,5 km/h (4 Bft) 93,62 %
29.01.2019 11:52 3,6 C 7,2 C 2,8 C 86 % 1003,5 hPa 0,0 l/m 2 min 0 min 321 W/m 16,1 km/h (3 Bft) 95,65 %
29.01.2019 11:54 3,7 C 7,2 C 3,3 C 86 % 1003,5 hPa 0,0 l/m 2 min 0 min 320 W/m 19,3 km/h (3 Bft) 93,62 %
29.01.2019 11:56 3,7 C 8,3 C 3,3 C 85 % 1003,4 hPa 0,0 l/m 2 min 0 min 331 W/m 12,9 km/h (3 Bft) 95,74 %
29.01.2019 11:58 3,8 C 8,9 C 3,3 C 85 % 1003,4 hPa 0,0 l/m 2 min 0 min 320 W/m 9,7 km/h (2 Bft) 95,74 %
29.01.2019 12:00 3,9 C 8,3 C 3,3 C 85 % 1003,3 hPa 0,0 l/m 2 min 0 min 319 W/m 19,3 km/h (3 Bft) 95,74 %
29.01.2019 12:02 3,9 C 8,3 C 3,3 C 84 % 1003,3 hPa 0,0 l/m 2 min 0 min 329 W/m 22,5 km/h (4 Bft) 95,74 %
29.01.2019 12:04 4,0 C 7,8 C 3,3 C 84 % 1003,3 hPa 0,0 l/m 2 min 0 min 324 W/m 19,3 km/h (3 Bft) 97,83 %
29.01.2019 12:08 4,1 C 7,8 C 3,3 C 81 % 1003,3 hPa 0,0 l/m 4 min 0 min 339 W/m 19,3 km/h (3 Bft) 95,51 %
29.01.2019 12:10 4,2 C 8,3 C 3,3 C 81 % 1003,1 hPa 0,0 l/m 2 min 0 min 356 W/m 16,1 km/h (3 Bft) 95,74 %
29.01.2019 12:12 4,2 C 8,9 C 3,3 C 80 % 1003,1 hPa 0,0 l/m 2 min 0 min 361 W/m 16,1 km/h (3 Bft) 97,87 %
29.01.2019 12:14 4,3 C 8,3 C 3,9 C 79 % 1003,1 hPa 0,0 l/m 2 min 0 min 370 W/m 25,7 km/h (4 Bft) 97,87 %
29.01.2019 12:16 4,3 C 7,8 C 3,3 C 78 % 1003,0 hPa 0,0 l/m 2 min 0 min 377 W/m 22,5 km/h (4 Bft) 95,92 %
29.01.2019 12:18 4,4 C 8,3 C 3,9 C 78 % 1003,0 hPa 0,0 l/m 2 min 0 min 350 W/m 16,1 km/h (3 Bft) 97,87 %
29.01.2019 12:20 4,4 C 7,8 C 3,9 C 77 % 1002,9 hPa 0,0 l/m 2 min 0 min 357 W/m 22,5 km/h (4 Bft) 97,87 %
29.01.2019 12:22 4,5 C 8,3 C 3,9 C 77 % 1002,9 hPa 0,0 l/m 2 min 0 min 355 W/m 16,1 km/h (3 Bft) 97,87 %
29.01.2019 12:24 4,6 C 8,3 C 3,9 C 77 % 1002,9 hPa 0,0 l/m 2 min 0 min 347 W/m 12,9 km/h (3 Bft) 97,87 %
29.01.2019 12:26 4,6 C 8,3 C 3,9 C 77 % 1002,8 hPa 0,0 l/m 2 min 0 min 341 W/m 12,9 km/h (3 Bft) 95,65 %
29.01.2019 12:28 4,6 C 7,2 C 3,9 C 76 % 1002,8 hPa 0,0 l/m 2 min 0 min 343 W/m 25,7 km/h (4 Bft) 95,74 %
29.01.2019 12:30 4,7 C 7,8 C 4,4 C 75 % 1002,7 hPa 0,0 l/m 2 min 0 min 364 W/m 22,5 km/h (4 Bft) 95,74 %
29.01.2019 12:32 4,7 C 8,9 C 5,6 C 75 % 1002,7 hPa 0,0 l/m 2 min 0 min 374 W/m 16,1 km/h (3 Bft) 95,83 %
29.01.2019 12:34 4,7 C 8,9 C 6,7 C 75 % 1002,6 hPa 0,0 l/m 2 min 0 min 367 W/m 16,1 km/h (3 Bft) 95,74 %
29.01.2019 12:36 4,7 C 7,8 C 6,1 C 74 % 1002,6 hPa 0,0 l/m 2 min 0 min 334 W/m 25,7 km/h (4 Bft) 95,74 %
29.01.2019 12:38 4,7 C 7,2 C 6,1 C 73 % 1002,6 hPa 0,0 l/m 2 min 0 min 319 W/m 25,7 km/h (4 Bft) 95,65 %
29.01.2019 12:40 4,7 C 7,8 C 6,7 C 73 % 1002,6 hPa 0,0 l/m 2 min 0 min 346 W/m 19,3 km/h (3 Bft) 91,49 %
29.01.2019 12:42 4,8 C 7,8 C 7,2 C 72 % 1002,5 hPa 0,0 l/m 2 min 0 min 359 W/m 22,5 km/h (4 Bft) 95,74 %
29.01.2019 12:44 4,8 C 7,8 C 6,7 C 72 % 1002,5 hPa 0,0 l/m 2 min 0 min 365 W/m 19,3 km/h (3 Bft) 95,74 %
29.01.2019 12:46 4,8 C 8,3 C 7,2 C 72 % 1002,4 hPa 0,0 l/m 2 min 0 min 356 W/m 16,1 km/h (3 Bft) 89,36 %
29.01.2019 12:48 4,8 C 7,8 C 6,7 C 72 % 1002,4 hPa 0,0 l/m 2 min 0 min 310 W/m 16,1 km/h (3 Bft) 91,49 %
29.01.2019 12:50 4,8 C 8,3 C 6,7 C 72 % 1002,3 hPa 0,0 l/m 2 min 0 min 317 W/m 12,9 km/h (3 Bft) 95,65 %
29.01.2019 12:52 4,8 C 8,3 C 6,1 C 73 % 1002,3 hPa 0,0 l/m 2 min 0 min 327 W/m 16,1 km/h (3 Bft) 95,74 %
29.01.2019 12:54 4,9 C 8,9 C 5,6 C 72 % 1002,3 hPa 0,0 l/m 2 min 0 min 323 W/m 19,3 km/h (3 Bft) 93,62 %
29.01.2019 12:56 4,9 C 8,3 C 5,0 C 72 % 1002,3 hPa 0,0 l/m 2 min 0 min 345 W/m 22,5 km/h (4 Bft) 93,62 %
29.01.2019 12:58 5,0 C 8,9 C 5,0 C 71 % 1002,3 hPa 0,0 l/m 2 min 0 min 369 W/m 16,1 km/h (3 Bft) 95,74 %
29.01.2019 13:00 5,0 C 8,9 C 5,0 C 71 % 1002,2 hPa 0,0 l/m 2 min 0 min 352 W/m 16,1 km/h (3 Bft) 95,74 %
29.01.2019 13:02 5,1 C 8,9 C 4,4 C 70 % 1002,2 hPa 0,0 l/m 2 min 0 min 354 W/m 16,1 km/h (3 Bft) 97,87 %
29.01.2019 13:04 5,1 C 8,9 C 4,4 C 70 % 1002,2 hPa 0,0 l/m 2 min 0 min 380 W/m 12,9 km/h (3 Bft) 95,74 %
29.01.2019 13:06 5,1 C 9,4 C 4,4 C 69 % 1002,2 hPa 0,0 l/m 2 min 0 min 389 W/m 19,3 km/h (3 Bft) 97,87 %
29.01.2019 13:08 5,2 C 8,9 C 4,4 C 69 % 1002,1 hPa 0,0 l/m 2 min 0 min 380 W/m 16,1 km/h (3 Bft) 97,87 %
29.01.2019 13:10 5,2 C 9,4 C 4,4 C 69 % 1002,1 hPa 0,0 l/m 2 min 0 min 380 W/m 19,3 km/h (3 Bft) 97,87 %
29.01.2019 13:12 5,3 C 8,3 C 4,4 C 69 % 1002,1 hPa 0,0 l/m 2 min 0 min 383 W/m 22,5 km/h (4 Bft) 93,62 %
29.01.2019 13:14 5,3 C 8,3 C 4,4 C 68 % 1002,1 hPa 0,0 l/m 2 min 0 min 388 W/m 16,1 km/h (3 Bft) 97,83 %
29.01.2019 13:16 5,3 C 8,3 C 4,4 C 69 % 1002,1 hPa 0,0 l/m 2 min 0 min 398 W/m 16,1 km/h (3 Bft) 97,87 %
29.01.2019 13:18 5,3 C 8,3 C 4,4 C 69 % 1002,1 hPa 0,0 l/m 2 min 0 min 397 W/m 19,3 km/h (3 Bft) 96,00 %
29.01.2019 13:20 5,3 C 7,2 C 4,4 C 69 % 1002,1 hPa 0,0 l/m 2 min 0 min 316 W/m 29,0 km/h (5 Bft) 97,87 %
29.01.2019 13:22 5,3 C 6,7 C 4,4 C 68 % 1002,0 hPa 0,0 l/m 2 min 0 min 209 W/m 22,5 km/h (4 Bft) 97,87 %
29.01.2019 13:24 5,3 C 8,3 C 4,4 C 68 % 1002,0 hPa 0,0 l/m 2 min 0 min 299 W/m 12,9 km/h (3 Bft) 95,65 %
29.01.2019 13:26 5,3 C 9,4 C 5,0 C 68 % 1002,0 hPa 0,0 l/m 2 min 0 min 421 W/m 19,3 km/h (3 Bft) 93,62 %
29.01.2019 13:28 5,3 C 8,3 C 5,0 C 68 % 1002,0 hPa 0,0 l/m 2 min 0 min 355 W/m 16,1 km/h (3 Bft) 97,87 %
29.01.2019 13:30 5,3 C 6,7 C 4,4 C 67 % 1002,0 hPa 0,0 l/m 2 min 0 min 232 W/m 19,3 km/h (3 Bft) 99,12 %
29.01.2019 13:34 5,3 C 6,1 C 4,4 C 67 % 1001,9 hPa 0,0 l/m 0 min 0 min 185 W/m 16,1 km/h (3 Bft) 100,00 %
29.01.2019 13:36 5,3 C 7,2 C 4,4 C 67 % 1001,8 hPa 0,0 l/m 2 min 0 min 219 W/m 19,3 km/h (3 Bft) 95,74 %
29.01.2019 13:38 5,3 C 8,3 C 5,0 C 67 % 1001,8 hPa 0,0 l/m 2 min 0 min 350 W/m 22,5 km/h (4 Bft) 97,83 %
29.01.2019 13:40 5,3 C 8,9 C 5,0 C 67 % 1001,8 hPa 0,0 l/m 2 min 0 min 424 W/m 22,5 km/h (4 Bft) 97,87 %
29.01.2019 13:42 5,3 C 8,9 C 5,0 C 67 % 1001,8 hPa 0,0 l/m 2 min 0 min 418 W/m 22,5 km/h (4 Bft) 97,87 %
29.01.2019 13:44 5,3 C 7,2 C 5,0 C 66 % 1001,7 hPa 0,0 l/m 2 min 0 min 277 W/m 16,1 km/h (3 Bft) 95,74 %
29.01.2019 13:46 5,3 C 5,6 C 4,4 C 66 % 1001,7 hPa 0,0 l/m 0 min 0 min 140 W/m 22,5 km/h (4 Bft) 97,87 %
29.01.2019 13:48 5,3 C 5,6 C 4,4 C 65 % 1001,7 hPa 0,0 l/m 0 min 0 min 139 W/m 25,7 km/h (4 Bft) 97,87 %
29.01.2019 13:50 5,3 C 5,6 C 4,4 C 65 % 1001,7 hPa 0,0 l/m 0 min 0 min 149 W/m 22,5 km/h (4 Bft) 97,83 %
29.01.2019 13:52 5,2 C 5,0 C 4,4 C 65 % 1001,7 hPa 0,0 l/m 0 min 0 min 165 W/m 19,3 km/h (3 Bft) 95,74 %
29.01.2019 13:54 5,2 C 5,0 C 3,9 C 65 % 1001,7 hPa 0,0 l/m 0 min 0 min 124 W/m 25,7 km/h (4 Bft) 95,74 %
29.01.2019 13:56 5,1 C 4,4 C 3,9 C 65 % 1001,6 hPa 0,0 l/m 0 min 0 min 121 W/m 25,7 km/h (4 Bft) 97,87 %
29.01.2019 13:58 5,0 C 5,0 C 3,9 C 65 % 1001,6 hPa 0,0 l/m 0 min 0 min 131 W/m 22,5 km/h (4 Bft) 95,74 %
29.01.2019 14:00 4,9 C 6,1 C 4,4 C 66 % 1001,5 hPa 0,0 l/m 2 min 0 min 269 W/m 19,3 km/h (3 Bft) 97,87 %
29.01.2019 14:02 4,9 C 6,1 C 4,4 C 66 % 1001,5 hPa 0,0 l/m 2 min 0 min 259 W/m 22,5 km/h (4 Bft) 93,48 %
29.01.2019 14:04 4,9 C 5,6 C 4,4 C 66 % 1001,4 hPa 0,0 l/m 0 min 0 min 117 W/m 22,5 km/h (4 Bft) 97,87 %
29.01.2019 14:06 4,9 C 5,0 C 3,9 C 66 % 1001,5 hPa 0,0 l/m 0 min 0 min 115 W/m 29,0 km/h (5 Bft) 97,87 %
29.01.2019 14:08 4,8 C 5,0 C 3,9 C 66 % 1001,4 hPa 0,0 l/m 0 min 0 min 119 W/m 25,7 km/h (4 Bft) 95,92 %
29.01.2019 14:10 4,8 C 4,4 C 3,9 C 66 % 1001,3 hPa 0,0 l/m 0 min 0 min 124 W/m 16,1 km/h (3 Bft) 97,87 %
29.01.2019 14:12 4,8 C 4,4 C 3,9 C 67 % 1001,4 hPa 0,0 l/m 0 min 0 min 120 W/m 16,1 km/h (3 Bft) 97,83 %
29.01.2019 14:14 4,8 C 4,4 C 3,9 C 67 % 1001,3 hPa 0,0 l/m 0 min 0 min 99 W/m 19,3 km/h (3 Bft) 97,87 %
29.01.2019 14:16 4,8 C 4,4 C 3,9 C 67 % 1001,3 hPa 0,0 l/m 0 min 0 min 90 W/m 22,5 km/h (4 Bft) 97,87 %
29.01.2019 14:18 4,7 C 4,4 C 3,9 C 68 % 1001,1 hPa 0,0 l/m 0 min 0 min 87 W/m 22,5 km/h (4 Bft) 100,00 %
29.01.2019 14:20 4,7 C 4,4 C 3,9 C 68 % 1001,2 hPa 0,0 l/m 0 min 0 min 91 W/m 22,5 km/h (4 Bft) 100,00 %
29.01.2019 14:22 4,7 C 4,4 C 3,9 C 67 % 1001,0 hPa 0,0 l/m 0 min 0 min 109 W/m 22,5 km/h (4 Bft) 97,87 %
29.01.2019 14:24 4,6 C 5,6 C 3,9 C 67 % 1001,2 hPa 0,0 l/m 0 min 0 min 136 W/m 25,7 km/h (4 Bft) 100,00 %
29.01.2019 14:26 4,6 C 5,0 C 3,9 C 67 % 1001,2 hPa 0,0 l/m 0 min 0 min 133 W/m 16,1 km/h (3 Bft) 100,00 %
29.01.2019 14:28 4,6 C 6,1 C 3,9 C 68 % 1001,2 hPa 0,0 l/m 0 min 0 min 165 W/m 19,3 km/h (3 Bft) 100,00 %
29.01.2019 14:30 4,6 C 6,1 C 3,9 C 68 % 1001,0 hPa 0,0 l/m 2 min 0 min 178 W/m 25,7 km/h (4 Bft) 97,87 %
29.01.2019 14:32 4,6 C 6,1 C 3,9 C 67 % 1001,0 hPa 0,0 l/m 2 min 0 min 249 W/m 32,2 km/h (5 Bft) 100,00 %
29.01.2019 14:34 4,6 C 5,6 C 3,9 C 68 % 1001,0 hPa 0,0 l/m 0 min 0 min 118 W/m 35,4 km/h (5 Bft) 100,00 %
29.01.2019 14:36 4,6 C 6,7 C 3,9 C 68 % 1000,9 hPa 0,0 l/m 2 min 0 min 231 W/m 19,3 km/h (3 Bft) 100,00 %
29.01.2019 14:38 4,7 C 6,1 C 3,9 C 68 % 1001,0 hPa 0,0 l/m 2 min 0 min 206 W/m 12,9 km/h (3 Bft) 100,00 %
29.01.2019 14:40 4,7 C 5,6 C 3,9 C 68 % 1000,9 hPa 0,0 l/m 0 min 0 min 119 W/m 25,7 km/h (4 Bft) 100,00 %
29.01.2019 14:44 4,7 C 6,1 C 3,9 C 68 % 1000,8 hPa 0,0 l/m 4 min 0 min 215 W/m 25,7 km/h (4 Bft) 100,00 %
29.01.2019 14:46 4,7 C 6,7 C 3,9 C 68 % 1000,9 hPa 0,0 l/m 2 min 0 min 266 W/m 25,7 km/h (4 Bft) 97,83 %
29.01.2019 14:48 4,7 C 7,2 C 3,9 C 68 % 1000,8 hPa 0,0 l/m 2 min 0 min 269 W/m 19,3 km/h (3 Bft) 100,00 %
29.01.2019 14:50 4,8 C 7,8 C 4,4 C 68 % 1000,7 hPa 0,0 l/m 2 min 0 min 273 W/m 16,1 km/h (3 Bft) 100,00 %
29.01.2019 14:52 4,8 C 7,8 C 4,4 C 69 % 1000,7 hPa 0,0 l/m 2 min 0 min 273 W/m 19,3 km/h (3 Bft) 100,00 %
29.01.2019 14:54 4,8 C 7,8 C 4,4 C 69 % 1000,7 hPa 0,0 l/m 2 min 0 min 270 W/m 19,3 km/h (3 Bft) 100,00 %
29.01.2019 14:56 4,9 C 7,8 C 4,4 C 68 % 1000,7 hPa 0,0 l/m 2 min 0 min 264 W/m 22,5 km/h (4 Bft) 100,00 %
29.01.2019 14:58 4,9 C 6,1 C 3,9 C 68 % 1000,7 hPa 0,0 l/m 2 min 0 min 243 W/m 29,0 km/h (5 Bft) 100,00 %
29.01.2019 15:00 4,9 C 5,6 C 3,9 C 68 % 1000,6 hPa 0,0 l/m 0 min 0 min 96 W/m 16,1 km/h (3 Bft) 97,87 %
29.01.2019 15:02 4,9 C 4,4 C 3,3 C 67 % 1000,6 hPa 0,0 l/m 0 min 0 min 80 W/m 29,0 km/h (5 Bft) 97,87 %
29.01.2019 15:04 4,8 C 4,4 C 3,3 C 66 % 1000,6 hPa 0,0 l/m 0 min 0 min 72 W/m 22,5 km/h (4 Bft) 97,87 %
29.01.2019 15:06 4,8 C 3,9 C 3,3 C 67 % 1000,6 hPa 0,0 l/m 0 min 0 min 70 W/m 19,3 km/h (3 Bft) 97,87 %
29.01.2019 15:08 4,7 C 3,9 C 3,3 C 67 % 1000,5 hPa 0,0 l/m 0 min 0 min 77 W/m 29,0 km/h (5 Bft) 97,87 %
29.01.2019 15:10 4,6 C 3,9 C 3,3 C 67 % 1000,5 hPa 0,0 l/m 0 min 0 min 88 W/m 22,5 km/h (4 Bft) 97,87 %
29.01.2019 15:12 4,6 C 4,4 C 3,3 C 67 % 1000,5 hPa 0,0 l/m 0 min 0 min 99 W/m 16,1 km/h (3 Bft) 97,83 %
29.01.2019 15:14 4,6 C 4,4 C 3,3 C 68 % 1000,5 hPa 0,0 l/m 0 min 0 min 109 W/m 25,7 km/h (4 Bft) 97,87 %
29.01.2019 15:16 4,5 C 4,4 C 3,3 C 68 % 1000,5 hPa 0,0 l/m 0 min 0 min 97 W/m 19,3 km/h (3 Bft) 97,87 %
29.01.2019 15:18 4,4 C 3,9 C 3,3 C 69 % 1000,5 hPa 0,0 l/m 0 min 0 min 79 W/m 19,3 km/h (3 Bft) 97,87 %
29.01.2019 15:20 4,4 C 3,9 C 3,3 C 69 % 1000,5 hPa 0,0 l/m 0 min 0 min 69 W/m 19,3 km/h (3 Bft) 97,87 %
29.01.2019 15:22 4,4 C 3,9 C 3,3 C 69 % 1000,5 hPa 0,0 l/m 0 min 0 min 61 W/m 32,2 km/h (5 Bft) 95,65 %
29.01.2019 15:24 4,3 C 3,9 C 3,3 C 69 % 1000,5 hPa 0,0 l/m 0 min 0 min 62 W/m 29,0 km/h (5 Bft) 97,87 %
29.01.2019 15:26 4,3 C 3,9 C 2,8 C 69 % 1000,4 hPa 0,0 l/m 0 min 0 min 54 W/m 19,3 km/h (3 Bft) 97,87 %
29.01.2019 15:28 4,2 C 3,9 C 2,8 C 70 % 1000,5 hPa 0,0 l/m 0 min 0 min 52 W/m 12,9 km/h (3 Bft) 97,87 %
29.01.2019 15:30 4,2 C 3,3 C 2,8 C 70 % 1000,5 hPa 0,0 l/m 0 min 0 min 49 W/m 29,0 km/h (5 Bft) 97,87 %
29.01.2019 15:32 4,2 C 3,3 C 2,8 C 70 % 1000,4 hPa 0,0 l/m 0 min 0 min 55 W/m 22,5 km/h (4 Bft) 97,87 %
29.01.2019 15:34 4,1 C 3,3 C 2,8 C 70 % 1000,4 hPa 0,0 l/m 0 min 0 min 64 W/m 32,2 km/h (5 Bft) 95,65 %
29.01.2019 15:36 4,1 C 3,9 C 2,8 C 70 % 1000,3 hPa 0,0 l/m 0 min 0 min 67 W/m 22,5 km/h (4 Bft) 97,87 %
29.01.2019 15:38 4,0 C 3,9 C 2,8 C 70 % 1000,3 hPa 0,0 l/m 0 min 0 min 65 W/m 19,3 km/h (3 Bft) 95,74 %
29.01.2019 15:40 4,0 C 3,3 C 2,8 C 71 % 1000,3 hPa 0,0 l/m 0 min 0 min 62 W/m 22,5 km/h (4 Bft) 92,59 %
29.01.2019 15:42 3,9 C 3,3 C 2,8 C 71 % 1000,3 hPa 0,0 l/m 0 min 0 min 62 W/m 25,7 km/h (4 Bft) 95,74 %
29.01.2019 15:44 3,9 C 3,3 C 2,8 C 71 % 1000,3 hPa 0,0 l/m 0 min 0 min 62 W/m 25,7 km/h (4 Bft) 97,87 %
29.01.2019 15:46 3,9 C 3,3 C 2,8 C 72 % 1000,2 hPa 0,0 l/m 0 min 0 min 61 W/m 25,7 km/h (4 Bft) 95,74 %
29.01.2019 15:48 3,9 C 3,3 C 2,8 C 72 % 1000,2 hPa 0,0 l/m 0 min 0 min 63 W/m 22,5 km/h (4 Bft) 95,74 %
29.01.2019 15:50 3,9 C 3,3 C 2,8 C 72 % 1000,2 hPa 0,0 l/m 0 min 0 min 67 W/m 16,1 km/h (3 Bft) 95,65 %
29.01.2019 15:52 3,8 C 3,3 C 2,8 C 72 % 1000,2 hPa 0,0 l/m 0 min 0 min 64 W/m 22,5 km/h (4 Bft) 97,87 %
29.01.2019 15:54 3,8 C 3,3 C 2,8 C 73 % 1000,1 hPa 0,0 l/m 0 min 0 min 60 W/m 22,5 km/h (4 Bft) 97,87 %
29.01.2019 15:56 3,8 C 3,3 C 2,8 C 73 % 1000,1 hPa 0,0 l/m 0 min 0 min 60 W/m 19,3 km/h (3 Bft) 97,87 %
29.01.2019 15:58 3,8 C 3,3 C 2,8 C 73 % 1000,1 hPa 0,0 l/m 0 min 0 min 65 W/m 19,3 km/h (3 Bft) 95,74 %
29.01.2019 16:00 3,8 C 3,3 C 2,8 C 72 % 1000,0 hPa 0,0 l/m 0 min 0 min 73 W/m 19,3 km/h (3 Bft) 97,87 %
29.01.2019 16:02 3,7 C 3,3 C 2,8 C 72 % 999,9 hPa 0,0 l/m 0 min 0 min 71 W/m 19,3 km/h (3 Bft) 97,83 %
29.01.2019 16:04 3,7 C 3,3 C 2,8 C 72 % 999,8 hPa 0,0 l/m 0 min 0 min 65 W/m 25,7 km/h (4 Bft) 97,87 %
29.01.2019 16:06 3,7 C 3,3 C 2,8 C 73 % 999,9 hPa 0,0 l/m 0 min 0 min 68 W/m 19,3 km/h (3 Bft) 95,83 %
29.01.2019 16:08 3,7 C 3,3 C 2,8 C 73 % 999,9 hPa 0,0 l/m 0 min 0 min 69 W/m 19,3 km/h (3 Bft) 93,62 %
29.01.2019 16:10 3,7 C 3,3 C 2,8 C 73 % 999,8 hPa 0,0 l/m 0 min 0 min 67 W/m 22,5 km/h (4 Bft) 97,37 %
29.01.2019 16:14 3,7 C 3,3 C 2,8 C 72 % 999,8 hPa 0,0 l/m 0 min 0 min 49 W/m 9,7 km/h (2 Bft) 97,14 %
29.01.2019 16:15 3,6 C 3,3 C 2,2 C 72 % 999,7 hPa 0,0 l/m 0 min 0 min 52 W/m 29,0 km/h (5 Bft) 100,00 %
29.01.2019 16:18 3,6 C 3,3 C 2,2 C 73 % 999,7 hPa 0,0 l/m 0 min 0 min 42 W/m 25,7 km/h (4 Bft) 94,55 %
29.01.2019 16:20 3,6 C 2,8 C 2,2 C 73 % 999,6 hPa 0,0 l/m 0 min 0 min 42 W/m 12,9 km/h (3 Bft) 95,74 %
29.01.2019 16:22 3,6 C 2,8 C 2,2 C 73 % 999,6 hPa 0,0 l/m 0 min 0 min 42 W/m 19,3 km/h (3 Bft) 95,65 %
29.01.2019 16:24 3,5 C 2,8 C 2,2 C 73 % 999,6 hPa 0,0 l/m 0 min 0 min 42 W/m 16,1 km/h (3 Bft) 95,24 %
29.01.2019 16:26 3,5 C 2,8 C 2,2 C 73 % 999,5 hPa 0,0 l/m 0 min 0 min 44 W/m 16,1 km/h (3 Bft) 95,74 %
29.01.2019 16:28 3,4 C 2,8 C 2,2 C 73 % 999,5 hPa 0,0 l/m 0 min 0 min 45 W/m 16,1 km/h (3 Bft) 91,49 %
29.01.2019 16:30 3,4 C 2,8 C 2,2 C 73 % 999,5 hPa 0,0 l/m 0 min 0 min 43 W/m 12,9 km/h (3 Bft) 95,74 %
29.01.2019 16:32 3,4 C 2,8 C 2,2 C 73 % 999,5 hPa 0,0 l/m 0 min 0 min 40 W/m 19,3 km/h (3 Bft) 95,74 %
29.01.2019 16:34 3,3 C 2,8 C 1,7 C 73 % 999,5 hPa 0,0 l/m 0 min 0 min 38 W/m 19,3 km/h (3 Bft) 95,65 %
29.01.2019 16:36 3,3 C 2,8 C 1,7 C 73 % 999,5 hPa 0,0 l/m 0 min 0 min 36 W/m 12,9 km/h (3 Bft) 95,74 %
29.01.2019 16:38 3,2 C 2,8 C 1,7 C 73 % 999,5 hPa 0,0 l/m 0 min 0 min 33 W/m 22,5 km/h (4 Bft) 97,73 %
29.01.2019 16:40 3,2 C 2,8 C 1,7 C 73 % 999,5 hPa 0,0 l/m 0 min 0 min 33 W/m 16,1 km/h (3 Bft) 97,87 %
29.01.2019 16:42 3,1 C 2,2 C 1,7 C 73 % 999,5 hPa 0,0 l/m 0 min 0 min 33 W/m 16,1 km/h (3 Bft) 97,87 %
29.01.2019 16:44 3,1 C 2,2 C 1,7 C 73 % 999,5 hPa 0,0 l/m 0 min 0 min 32 W/m 19,3 km/h (3 Bft) 97,87 %
29.01.2019 16:46 3,1 C 2,2 C 1,7 C 74 % 999,4 hPa 0,0 l/m 0 min 0 min 29 W/m 16,1 km/h (3 Bft) 95,74 %
29.01.2019 16:48 3,0 C 2,2 C 1,7 C 74 % 999,4 hPa 0,0 l/m 0 min 0 min 27 W/m 25,7 km/h (4 Bft) 95,65 %
29.01.2019 16:50 2,9 C 2,2 C 1,7 C 74 % 999,3 hPa 0,0 l/m 0 min 0 min 26 W/m 16,1 km/h (3 Bft) 97,87 %
29.01.2019 16:52 2,9 C 2,2 C 1,7 C 74 % 999,4 hPa 0,0 l/m 0 min 0 min 24 W/m 12,9 km/h (3 Bft) 97,87 %
29.01.2019 16:54 2,9 C 2,2 C 1,7 C 74 % 999,4 hPa 0,0 l/m 0 min 0 min 22 W/m 19,3 km/h (3 Bft) 97,87 %
29.01.2019 16:56 2,9 C 2,2 C 1,7 C 74 % 999,4 hPa 0,0 l/m 0 min 0 min 20 W/m 12,9 km/h (3 Bft) 97,87 %
29.01.2019 16:58 2,8 C 2,2 C 1,7 C 74 % 999,3 hPa 0,0 l/m 0 min 0 min 18 W/m 12,9 km/h (3 Bft) 97,87 %
29.01.2019 17:00 2,8 C 2,2 C 1,7 C 74 % 999,4 hPa 0,0 l/m 0 min 0 min 16 W/m 19,3 km/h (3 Bft) 97,83 %
29.01.2019 17:02 2,8 C 2,2 C 1,1 C 74 % 999,3 hPa 0,0 l/m 0 min 0 min 14 W/m 12,9 km/h (3 Bft) 97,92 %
29.01.2019 17:04 2,7 C 2,2 C 1,1 C 74 % 999,3 hPa 0,0 l/m 0 min 0 min 12 W/m 12,9 km/h (3 Bft) 95,74 %
29.01.2019 17:06 2,7 C 1,7 C 1,1 C 74 % 999,3 hPa 0,0 l/m 0 min 0 min 11 W/m 19,3 km/h (3 Bft) 93,62 %
29.01.2019 17:08 2,7 C 1,7 C 1,1 C 74 % 999,4 hPa 0,0 l/m 0 min 0 min 9 W/m 16,1 km/h (3 Bft) 97,87 %
29.01.2019 17:10 2,6 C 1,7 C 1,1 C 74 % 999,3 hPa 0,0 l/m 0 min 0 min 7 W/m 12,9 km/h (3 Bft) 97,87 %
29.01.2019 17:12 2,6 C 1,7 C 1,1 C 75 % 999,3 hPa 0,0 l/m 0 min 0 min 5 W/m 19,3 km/h (3 Bft) 95,65 %
29.01.2019 17:14 2,6 C 1,7 C 1,1 C 75 % 999,2 hPa 0,0 l/m 0 min 0 min 5 W/m 22,5 km/h (4 Bft) 97,87 %
29.01.2019 17:16 2,5 C 1,7 C 1,1 C 75 % 999,2 hPa 0,0 l/m 0 min 0 min 0 W/m 12,9 km/h (3 Bft) 100,00 %
29.01.2019 17:18 2,5 C 1,7 C 1,1 C 75 % 999,2 hPa 0,0 l/m 0 min 0 min 0 W/m 12,9 km/h (3 Bft) 100,00 %
29.01.2019 17:20 2,4 C 1,7 C 1,1 C 75 % 999,1 hPa 0,0 l/m 0 min 0 min 0 W/m 22,5 km/h (4 Bft) 97,87 %
29.01.2019 17:22 2,4 C 1,7 C 1,1 C 75 % 999,1 hPa 0,0 l/m 0 min 0 min 0 W/m 25,7 km/h (4 Bft) 100,00 %
29.01.2019 17:24 2,3 C 1,7 C 1,1 C 75 % 999,1 hPa 0,0 l/m 0 min 0 min 0 W/m 12,9 km/h (3 Bft) 100,00 %
29.01.2019 17:26 2,3 C 1,7 C 1,1 C 75 % 999,0 hPa 0,0 l/m 0 min 0 min 0 W/m 16,1 km/h (3 Bft) 100,00 %
29.01.2019 17:28 2,3 C 1,7 C 0,6 C 75 % 999,0 hPa 0,0 l/m 0 min 0 min 0 W/m 16,1 km/h (3 Bft) 100,00 %
29.01.2019 17:30 2,2 C 1,7 C 0,6 C 75 % 998,9 hPa 0,0 l/m 0 min 0 min 0 W/m 16,1 km/h (3 Bft) 100,00 %
29.01.2019 17:32 2,2 C 1,7 C 0,6 C 75 % 998,8 hPa 0,0 l/m 0 min 0 min 0 W/m 22,5 km/h (4 Bft) 100,00 %
29.01.2019 17:34 2,2 C 1,1 C 0,6 C 75 % 998,8 hPa 0,0 l/m 0 min 0 min 0 W/m 12,9 km/h (3 Bft) 100,00 %
29.01.2019 17:36 2,2 C 1,7 C 0,6 C 76 % 998,8 hPa 0,0 l/m 0 min 0 min 0 W/m 22,5 km/h (4 Bft) 100,00 %
29.01.2019 17:38 2,1 C 1,7 C 0,6 C 76 % 998,8 hPa 0,0 l/m 0 min 0 min 0 W/m 25,7 km/h (4 Bft) 100,00 %
29.01.2019 17:40 2,1 C 1,7 C 0,6 C 76 % 998,8 hPa 0,0 l/m 0 min 0 min 0 W/m 19,3 km/h (3 Bft) 100,00 %
29.01.2019 17:42 2,1 C 1,7 C 0,6 C 76 % 998,8 hPa 0,0 l/m 0 min 0 min 0 W/m 19,3 km/h (3 Bft) 100,00 %
29.01.2019 17:44 2,1 C 1,1 C 0,6 C 76 % 998,8 hPa 0,0 l/m 0 min 0 min 0 W/m 16,1 km/h (3 Bft) 100,00 %
29.01.2019 17:46 2,0 C 1,1 C 0,6 C 76 % 998,8 hPa 0,0 l/m 0 min 0 min 0 W/m 9,7 km/h (2 Bft) 100,00 %
29.01.2019 17:48 2,0 C 1,1 C 0,6 C 76 % 998,8 hPa 0,0 l/m 0 min 0 min 0 W/m 19,3 km/h (3 Bft) 100,00 %
29.01.2019 17:50 2,0 C 1,1 C 0,6 C 76 % 998,8 hPa 0,0 l/m 0 min 0 min 0 W/m 16,1 km/h (3 Bft) 100,00 %
29.01.2019 17:52 1,9 C 1,1 C 0,6 C 76 % 998,8 hPa 0,0 l/m 0 min 0 min 0 W/m 16,1 km/h (3 Bft) 97,87 %
29.01.2019 17:54 1,9 C 1,1 C 0,6 C 76 % 998,8 hPa 0,0 l/m 0 min 0 min 0 W/m 16,1 km/h (3 Bft) 97,87 %
29.01.2019 17:56 1,9 C 1,1 C 0,6 C 76 % 998,8 hPa 0,0 l/m 0 min 0 min 0 W/m 19,3 km/h (3 Bft) 100,00 %
29.01.2019 17:58 1,9 C 1,1 C 0,6 C 76 % 998,8 hPa 0,0 l/m 0 min 0 min 0 W/m 22,5 km/h (4 Bft) 100,00 %
29.01.2019 18:00 1,9 C 1,1 C 0,6 C 77 % 998,8 hPa 0,0 l/m 0 min 0 min 0 W/m 16,1 km/h (3 Bft) 100,00 %
29.01.2019 18:02 1,8 C 1,1 C 0,6 C 77 % 998,8 hPa 0,0 l/m 0 min 0 min 0 W/m 22,5 km/h (4 Bft) 93,62 %
29.01.2019 18:04 1,8 C 1,1 C 0,6 C 77 % 998,7 hPa 0,0 l/m 0 min 0 min 0 W/m 19,3 km/h (3 Bft) 93,62 %
29.01.2019 18:08 1,7 C 1,1 C 0,6 C 77 % 998,6 hPa 0,0 l/m 0 min 0 min 0 W/m 29,0 km/h (5 Bft) 97,85 %
29.01.2019 18:10 1,7 C 1,1 C 0,6 C 78 % 998,6 hPa 0,0 l/m 0 min 0 min 0 W/m 29,0 km/h (5 Bft) 100,00 %
29.01.2019 18:12 1,7 C 1,1 C 0,6 C 78 % 998,6 hPa 0,0 l/m 0 min 0 min 0 W/m 22,5 km/h (4 Bft) 97,87 %
29.01.2019 18:14 1,7 C 1,1 C 0,6 C 78 % 998,5 hPa 0,0 l/m 0 min 0 min 0 W/m 16,1 km/h (3 Bft) 100,00 %
29.01.2019 18:16 1,7 C 1,1 C 0,6 C 78 % 998,5 hPa 0,0 l/m 0 min 0 min 0 W/m 22,5 km/h (4 Bft) 95,74 %
29.01.2019 18:18 1,7 C 1,1 C 0,6 C 78 % 998,4 hPa 0,0 l/m 0 min 0 min 0 W/m 29,0 km/h (5 Bft) 97,87 %
29.01.2019 18:20 1,6 C 1,1 C 0,6 C 78 % 998,4 hPa 0,0 l/m 0 min 0 min 0 W/m 19,3 km/h (3 Bft) 97,83 %
29.01.2019 18:22 1,6 C 1,1 C 0,6 C 78 % 998,4 hPa 0,0 l/m 0 min 0 min 0 W/m 22,5 km/h (4 Bft) 97,87 %
29.01.2019 18:24 1,6 C 1,1 C 0,0 C 78 % 998,4 hPa 0,0 l/m 0 min 0 min 0 W/m 16,1 km/h (3 Bft) 93,62 %
29.01.2019 18:26 1,6 C 1,1 C 0,0 C 78 % 998,4 hPa 0,0 l/m 0 min 0 min 0 W/m 16,1 km/h (3 Bft) 97,87 %
29.01.2019 18:28 1,6 C 0,6 C 0,0 C 79 % 998,4 hPa 0,0 l/m 0 min 0 min 0 W/m 16,1 km/h (3 Bft) 95,74 %
29.01.2019 18:30 1,5 C 0,6 C 0,0 C 78 % 998,3 hPa 0,0 l/m 0 min 0 min 0 W/m 12,9 km/h (3 Bft) 97,87 %
29.01.2019 18:32 1,5 C 0,6 C 0,0 C 79 % 998,4 hPa 0,0 l/m 0 min 0 min 0 W/m 12,9 km/h (3 Bft) 97,83 %
29.01.2019 18:34 1,4 C 0,6 C 0,0 C 79 % 998,3 hPa 0,0 l/m 0 min 0 min 0 W/m 12,9 km/h (3 Bft) 97,87 %
29.01.2019 18:36 1,4 C 0,6 C 0,0 C 79 % 998,2 hPa 0,0 l/m 0 min 0 min 0 W/m 16,1 km/h (3 Bft) 95,74 %
29.01.2019 18:38 1,4 C 0,6 C 0,0 C 79 % 998,3 hPa 0,0 l/m 0 min 0 min 0 W/m 12,9 km/h (3 Bft) 97,87 %
29.01.2019 18:40 1,4 C 0,6 C 0,0 C 79 % 998,2 hPa 0,0 l/m 0 min 0 min 0 W/m 12,9 km/h (3 Bft) 95,74 %
29.01.2019 18:42 1,3 C 0,6 C 0,0 C 79 % 998,1 hPa 0,0 l/m 0 min 0 min 0 W/m 16,1 km/h (3 Bft) 97,83 %
29.01.2019 18:44 1,3 C 0,6 C 0,0 C 79 % 998,2 hPa 0,0 l/m 0 min 0 min 0 W/m 19,3 km/h (3 Bft) 95,74 %
29.01.2019 18:46 1,3 C 0,6 C 0,0 C 80 % 998,1 hPa 0,0 l/m 0 min 0 min 0 W/m 22,5 km/h (4 Bft) 95,74 %
29.01.2019 18:48 1,3 C 0,6 C 0,0 C 80 % 998,1 hPa 0,0 l/m 0 min 0 min 0 W/m 16,1 km/h (3 Bft) 95,74 %
29.01.2019 18:50 1,2 C 0,6 C 0,0 C 80 % 998,1 hPa 0,0 l/m 0 min 0 min 0 W/m 16,1 km/h (3 Bft) 95,74 %
29.01.2019 18:52 1,2 C 0,6 C 0,0 C 80 % 998,1 hPa 0,0 l/m 0 min 0 min 0 W/m 9,7 km/h (2 Bft) 95,74 %
29.01.2019 18:54 1,2 C 0,6 C 0,0 C 80 % 998,0 hPa 0,0 l/m 0 min 0 min 0 W/m 12,9 km/h (3 Bft) 95,65 %
29.01.2019 18:56 1,2 C 0,6 C 0,0 C 80 % 998,0 hPa 0,0 l/m 0 min 0 min 0 W/m 16,1 km/h (3 Bft) 95,74 %
29.01.2019 18:58 1,2 C 0,6 C 0,0 C 80 % 998,0 hPa 0,0 l/m 0 min 0 min 0 W/m 22,5 km/h (4 Bft) 95,74 %
29.01.2019 19:00 1,2 C 0,6 C 0,0 C 80 % 997,9 hPa 0,0 l/m 0 min 0 min 0 W/m 22,5 km/h (4 Bft) 93,62 %
29.01.2019 19:02 1,2 C 0,6 C 0,0 C 80 % 997,9 hPa 0,0 l/m 0 min 0 min 0 W/m 19,3 km/h (3 Bft) 97,87 %
29.01.2019 19:04 1,1 C 0,6 C 0,0 C 80 % 997,9 hPa 0,0 l/m 0 min 0 min 0 W/m 9,7 km/h (2 Bft) 97,87 %
29.01.2019 19:06 1,1 C 0,6 C 0,0 C 80 % 998,0 hPa 0,0 l/m 0 min 0 min 0 W/m 12,9 km/h (3 Bft) 100,00 %
29.01.2019 19:08 1,1 C 0,6 C 0,0 C 80 % 997,9 hPa 0,0 l/m 0 min 0 min 0 W/m 19,3 km/h (3 Bft) 93,62 %
29.01.2019 19:10 1,1 C 0,6 C 0,0 C 80 % 997,9 hPa 0,0 l/m 0 min 0 min 0 W/m 12,9 km/h (3 Bft) 95,74 %
29.01.2019 19:12 1,1 C 0,6 C 0,0 C 80 % 997,9 hPa 0,0 l/m 0 min 0 min 0 W/m 16,1 km/h (3 Bft) 97,87 %
29.01.2019 19:14 1,1 C 0,6 C 0,0 C 80 % 997,9 hPa 0,0 l/m 0 min 0 min 0 W/m 22,5 km/h (4 Bft) 97,87 %
29.01.2019 19:16 1,1 C 0,6 C 0,0 C 81 % 997,8 hPa 0,0 l/m 0 min 0 min 0 W/m 9,7 km/h (2 Bft) 97,87 %
29.01.2019 19:18 1,1 C 0,6 C 0,0 C 81 % 997,8 hPa 0,0 l/m 0 min 0 min 0 W/m 12,9 km/h (3 Bft) 95,65 %
29.01.2019 19:20 1,1 C 0,6 C 0,0 C 81 % 997,8 hPa 0,0 l/m 0 min 0 min 0 W/m 16,1 km/h (3 Bft) 95,74 %
29.01.2019 19:22 1,1 C 0,6 C 0,0 C 81 % 997,7 hPa 0,0 l/m 0 min 0 min 0 W/m 16,1 km/h (3 Bft) 91,49 %
29.01.2019 19:24 1,1 C 0,6 C 0,0 C 81 % 997,6 hPa 0,0 l/m 0 min 0 min 0 W/m 22,5 km/h (4 Bft) 95,74 %
29.01.2019 19:26 1,0 C 0,6 C 0,0 C 81 % 997,6 hPa 0,0 l/m 0 min 0 min 0 W/m 16,1 km/h (3 Bft) 93,62 %
29.01.2019 19:28 1,0 C 0,6 C 0,0 C 81 % 997,6 hPa 0,0 l/m 0 min 0 min 0 W/m 9,7 km/h (2 Bft) 95,74 %
29.01.2019 19:30 1,0 C 0,6 C 0,0 C 81 % 997,5 hPa 0,0 l/m 0 min 0 min 0 W/m 16,1 km/h (3 Bft) 95,65 %
29.01.2019 19:32 1,0 C 0,6 C 0,0 C 81 % 997,5 hPa 0,0 l/m 0 min 0 min 0 W/m 6,4 km/h (2 Bft) 95,74 %
29.01.2019 19:34 1,0 C 0,6 C 0,0 C 81 % 997,5 hPa 0,0 l/m 0 min 0 min 0 W/m 12,9 km/h (3 Bft) 97,87 %
29.01.2019 19:36 1,0 C 0,6 C 0,0 C 81 % 997,5 hPa 0,0 l/m 0 min 0 min 0 W/m 12,9 km/h (3 Bft) 93,62 %
29.01.2019 19:38 1,0 C 0,6 C 0,0 C 81 % 997,5 hPa 0,0 l/m 0 min 0 min 0 W/m 12,9 km/h (3 Bft) 91,49 %
29.01.2019 19:40 1,0 C 0,6 C 0,0 C 81 % 997,4 hPa 0,0 l/m 0 min 0 min 0 W/m 12,9 km/h (3 Bft) 95,65 %
29.01.2019 19:42 1,0 C 0,6 C 0,0 C 81 % 997,5 hPa 0,0 l/m 0 min 0 min 0 W/m 12,9 km/h (3 Bft) 95,74 %
29.01.2019 19:44 1,0 C 0,6 C 0,0 C 81 % 997,4 hPa 0,0 l/m 0 min 0 min 0 W/m 9,7 km/h (2 Bft) 93,62 %
29.01.2019 19:46 0,9 C 0,6 C 0,0 C 81 % 997,4 hPa 0,0 l/m 0 min 0 min 0 W/m 9,7 km/h (2 Bft) 95,74 %
29.01.2019 19:48 0,9 C 0,6 C 0,0 C 81 % 997,4 hPa 0,0 l/m 0 min 0 min 0 W/m 19,3 km/h (3 Bft) 97,87 %
29.01.2019 19:50 0,9 C 0,6 C 0,0 C 81 % 997,3 hPa 0,0 l/m 0 min 0 min 0 W/m 12,9 km/h (3 Bft) 95,74 %
29.01.2019 19:52 0,9 C 0,6 C 0,0 C 81 % 997,3 hPa 0,0 l/m 0 min 0 min 0 W/m 16,1 km/h (3 Bft) 97,83 %
29.01.2019 19:54 0,9 C 0,6 C 0,0 C 81 % 997,2 hPa 0,0 l/m 0 min 0 min 0 W/m 19,3 km/h (3 Bft) 97,87 %
29.01.2019 19:56 1,0 C 0,6 C 0,0 C 81 % 997,2 hPa 0,0 l/m 0 min 0 min 0 W/m 16,1 km/h (3 Bft) 97,87 %
29.01.2019 19:58 1,0 C 0,6 C 0,0 C 82 % 997,1 hPa 0,0 l/m 0 min 0 min 0 W/m 9,7 km/h (2 Bft) 97,87 %
29.01.2019 20:00 0,9 C 0,6 C 0,0 C 82 % 997,1 hPa 0,0 l/m 0 min 0 min 0 W/m 12,9 km/h (3 Bft) 97,87 %
29.01.2019 20:02 0,9 C 0,6 C 0,0 C 82 % 997,1 hPa 0,0 l/m 0 min 0 min 0 W/m 16,1 km/h (3 Bft) 97,87 %
29.01.2019 20:04 0,9 C 0,6 C 0,0 C 82 % 997,1 hPa 0,0 l/m 0 min 0 min 0 W/m 12,9 km/h (3 Bft) 100,00 %
29.01.2019 20:06 1,0 C 0,6 C 0,0 C 82 % 997,1 hPa 0,0 l/m 0 min 0 min 0 W/m 22,5 km/h (4 Bft) 93,62 %
29.01.2019 20:08 1,0 C 0,6 C 0,0 C 82 % 997,1 hPa 0,0 l/m 0 min 0 min 0 W/m 12,9 km/h (3 Bft) 100,00 %
29.01.2019 20:10 1,0 C 0,6 C 0,0 C 82 % 997,1 hPa 0,0 l/m 0 min 0 min 0 W/m 16,1 km/h (3 Bft) 97,87 %
29.01.2019 20:12 1,0 C 0,6 C 0,0 C 82 % 997,1 hPa 0,0 l/m 0 min 0 min 0 W/m 16,1 km/h (3 Bft) 97,87 %
29.01.2019 20:14 1,0 C 0,6 C 0,0 C 82 % 997,0 hPa 0,0 l/m 0 min 0 min 0 W/m 16,1 km/h (3 Bft) 97,87 %
29.01.2019 20:16 1,0 C 0,6 C 0,0 C 82 % 997,0 hPa 0,0 l/m 0 min 0 min 0 W/m 19,3 km/h (3 Bft) 100,00 %
29.01.2019 20:18 1,0 C 0,6 C 0,0 C 82 % 997,0 hPa 0,0 l/m 0 min 0 min 0 W/m 16,1 km/h (3 Bft) 100,00 %
29.01.2019 20:20 1,1 C 0,6 C 0,0 C 82 % 997,0 hPa 0,0 l/m 0 min 0 min 0 W/m 16,1 km/h (3 Bft) 100,00 %
29.01.2019 20:22 1,1 C 0,6 C 0,0 C 82 % 997,0 hPa 0,0 l/m 0 min 0 min 0 W/m 9,7 km/h (2 Bft) 100,00 %
29.01.2019 20:24 1,1 C 0,6 C 0,0 C 82 % 997,0 hPa 0,0 l/m 0 min 0 min 0 W/m 12,9 km/h (3 Bft) 100,00 %
29.01.2019 20:26 1,1 C 0,6 C 0,0 C 82 % 997,0 hPa 0,0 l/m 0 min 0 min 0 W/m 9,7 km/h (2 Bft) 100,00 %
29.01.2019 20:28 1,1 C 0,6 C 0,0 C 82 % 997,0 hPa 0,0 l/m 0 min 0 min 0 W/m 12,9 km/h (3 Bft) 100,00 %
29.01.2019 20:30 1,1 C 0,6 C 0,0 C 82 % 997,0 hPa 0,0 l/m 0 min 0 min 0 W/m 16,1 km/h (3 Bft) 97,87 %
29.01.2019 20:32 1,1 C 0,6 C 0,0 C 82 % 997,0 hPa 0,0 l/m 0 min 0 min 0 W/m 9,7 km/h (2 Bft) 95,74 %
29.01.2019 20:34 1,1 C 0,6 C 0,0 C 83 % 996,9 hPa 0,0 l/m 0 min 0 min 0 W/m 12,9 km/h (3 Bft) 97,87 %
29.01.2019 20:36 1,1 C 0,6 C 0,0 C 83 % 996,8 hPa 0,0 l/m 0 min 0 min 0 W/m 16,1 km/h (3 Bft) 97,87 %
29.01.2019 20:38 1,1 C 0,6 C 0,0 C 83 % 996,8 hPa 0,0 l/m 0 min 0 min 0 W/m 9,7 km/h (2 Bft) 100,00 %
29.01.2019 20:40 1,1 C 0,6 C 0,0 C 83 % 996,8 hPa 0,0 l/m 0 min 0 min 0 W/m 12,9 km/h (3 Bft) 100,00 %
29.01.2019 20:42 1,1 C 0,6 C 0,0 C 83 % 996,7 hPa 0,0 l/m 0 min 0 min 0 W/m 12,9 km/h (3 Bft) 95,74 %
29.01.2019 20:44 1,1 C 0,6 C 0,0 C 83 % 996,7 hPa 0,0 l/m 0 min 0 min 0 W/m 9,7 km/h (2 Bft) 97,87 %
29.01.2019 20:46 1,1 C 0,6 C 0,0 C 83 % 996,7 hPa 0,0 l/m 0 min 0 min 0 W/m 9,7 km/h (2 Bft) 100,00 %
29.01.2019 20:48 1,1 C 0,6 C 0,0 C 83 % 996,8 hPa 0,0 l/m 0 min 0 min 0 W/m 16,1 km/h (3 Bft) 100,00 %
29.01.2019 20:50 1,1 C 0,6 C 0,0 C 83 % 996,7 hPa 0,0 l/m 0 min 0 min 0 W/m 16,1 km/h (3 Bft) 97,83 %
29.01.2019 20:52 1,1 C 0,6 C 0,0 C 83 % 996,6 hPa 0,0 l/m 0 min 0 min 0 W/m 12,9 km/h (3 Bft) 97,87 %
29.01.2019 20:54 1,1 C 0,6 C 0,0 C 83 % 996,6 hPa 0,0 l/m 0 min 0 min 0 W/m 9,7 km/h (2 Bft) 97,87 %
29.01.2019 20:56 1,1 C 0,6 C 0,0 C 83 % 996,6 hPa 0,0 l/m 0 min 0 min 0 W/m 12,9 km/h (3 Bft) 97,87 %
29.01.2019 20:58 1,1 C 0,6 C 0,0 C 83 % 996,6 hPa 0,0 l/m 0 min 0 min 0 W/m 9,7 km/h (2 Bft) 97,87 %
29.01.2019 21:00 1,1 C 0,6 C 0,0 C 83 % 996,5 hPa 0,0 l/m 0 min 0 min 0 W/m 9,7 km/h (2 Bft) 95,74 %
29.01.2019 21:02 1,1 C 0,6 C 0,0 C 83 % 996,5 hPa 0,0 l/m 0 min 0 min 0 W/m 9,7 km/h (2 Bft) 97,83 %
29.01.2019 21:04 1,1 C 0,6 C 0,0 C 83 % 996,4 hPa 0,0 l/m 0 min 0 min 0 W/m 12,9 km/h (3 Bft) 97,87 %
29.01.2019 21:06 1,1 C 0,6 C 0,0 C 83 % 996,4 hPa 0,0 l/m 0 min 0 min 0 W/m 12,9 km/h (3 Bft) 97,87 %
29.01.2019 21:08 1,1 C 0,6 C 0,0 C 83 % 996,4 hPa 0,0 l/m 0 min 0 min 0 W/m 16,1 km/h (3 Bft) 95,74 %
29.01.2019 21:10 1,0 C 0,6 C 0,0 C 83 % 996,4 hPa 0,0 l/m 0 min 0 min 0 W/m 6,4 km/h (2 Bft) 93,62 %
29.01.2019 21:12 1,0 C 0,6 C 0,0 C 83 % 996,3 hPa 0,0 l/m 0 min 0 min 0 W/m 9,7 km/h (2 Bft) 89,36 %
29.01.2019 21:14 1,0 C 0,6 C 0,0 C 83 % 996,3 hPa 0,0 l/m 0 min 0 min 0 W/m 9,7 km/h (2 Bft) 95,65 %
29.01.2019 21:16 1,0 C 0,6 C -0,6 C 83 % 996,3 hPa 0,0 l/m 0 min 0 min 0 W/m 6,4 km/h (2 Bft) 97,87 %
29.01.2019 21:18 1,0 C 0,6 C -0,6 C 83 % 996,3 hPa 0,0 l/m 0 min 0 min 0 W/m 6,4 km/h (2 Bft) 97,87 %
29.01.2019 21:20 1,0 C 0,6 C -0,6 C 83 % 996,2 hPa 0,0 l/m 0 min 0 min 0 W/m 6,4 km/h (2 Bft) 97,87 %
29.01.2019 21:22 1,0 C 0,0 C -0,6 C 83 % 996,3 hPa 0,0 l/m 0 min 0 min 0 W/m 6,4 km/h (2 Bft) 97,87 %
29.01.2019 21:24 0,9 C 0,0 C -0,6 C 83 % 996,3 hPa 0,0 l/m 0 min 0 min 0 W/m 6,4 km/h (2 Bft) 97,87 %
29.01.2019 21:26 0,9 C 0,0 C -0,6 C 83 % 996,2 hPa 0,0 l/m 0 min 0 min 0 W/m 6,4 km/h (2 Bft) 97,83 %
29.01.2019 21:28 0,9 C 0,0 C -0,6 C 83 % 996,2 hPa 0,0 l/m 0 min 0 min 0 W/m 9,7 km/h (2 Bft) 95,74 %
29.01.2019 21:30 0,9 C 0,0 C -0,6 C 84 % 996,2 hPa 0,0 l/m 0 min 0 min 0 W/m 9,7 km/h (2 Bft) 95,74 %
29.01.2019 21:32 0,9 C 0,0 C -0,6 C 84 % 996,1 hPa 0,0 l/m 0 min 0 min 0 W/m 6,4 km/h (2 Bft) 100,00 %
29.01.2019 21:34 0,9 C 0,0 C -0,6 C 84 % 996,1 hPa 0,0 l/m 0 min 0 min 0 W/m 6,4 km/h (2 Bft) 100,00 %
29.01.2019 21:36 0,9 C 0,0 C -0,6 C 84 % 996,1 hPa 0,0 l/m 0 min 0 min 0 W/m 9,7 km/h (2 Bft) 97,87 %
29.01.2019 21:38 0,8 C 0,6 C -0,6 C 84 % 996,1 hPa 0,0 l/m 0 min 0 min 0 W/m 9,7 km/h (2 Bft) 97,83 %
29.01.2019 21:40 0,8 C 0,6 C -0,6 C 84 % 996,1 hPa 0,0 l/m 0 min 0 min 0 W/m 9,7 km/h (2 Bft) 100,00 %
29.01.2019 21:42 0,8 C 0,0 C -0,6 C 84 % 996,0 hPa 0,0 l/m 0 min 0 min 0 W/m 9,7 km/h (2 Bft) 100,00 %
29.01.2019 21:44 0,8 C 0,0 C -0,6 C 84 % 996,0 hPa 0,0 l/m 0 min 0 min 0 W/m 6,4 km/h (2 Bft) 97,87 %
29.01.2019 21:46 0,8 C 0,0 C -0,6 C 84 % 996,0 hPa 0,0 l/m 0 min 0 min 0 W/m 6,4 km/h (2 Bft) 100,00 %
29.01.2019 21:48 0,8 C 0,6 C -0,6 C 84 % 996,0 hPa 0,0 l/m 0 min 0 min 0 W/m 9,7 km/h (2 Bft) 100,00 %
29.01.2019 21:50 0,8 C 0,6 C -0,6 C 84 % 995,9 hPa 0,0 l/m 0 min 0 min 0 W/m 6,4 km/h (2 Bft) 97,87 %
29.01.2019 21:52 0,8 C 0,6 C -0,6 C 84 % 995,9 hPa 0,0 l/m 0 min 0 min 0 W/m 9,7 km/h (2 Bft) 100,00 %
29.01.2019 21:54 0,8 C 0,6 C -0,6 C 84 % 995,8 hPa 0,0 l/m 0 min 0 min 0 W/m 9,7 km/h (2 Bft) 97,87 %
29.01.2019 21:56 0,8 C 0,6 C -0,6 C 84 % 995,9 hPa 0,0 l/m 0 min 0 min 0 W/m 9,7 km/h (2 Bft) 97,87 %
29.01.2019 21:58 0,8 C 0,6 C 0,0 C 85 % 995,9 hPa 0,0 l/m 0 min 0 min 0 W/m 9,7 km/h (2 Bft) 100,00 %
29.01.2019 22:00 0,8 C 0,6 C 0,0 C 85 % 995,8 hPa 0,0 l/m 0 min 0 min 0 W/m 12,9 km/h (3 Bft) 100,00 %
29.01.2019 22:02 0,8 C 0,6 C 0,0 C 85 % 995,8 hPa 0,0 l/m 0 min 0 min 0 W/m 16,1 km/h (3 Bft) 100,00 %
29.01.2019 22:04 0,8 C 0,6 C 0,0 C 85 % 995,8 hPa 0,0 l/m 0 min 0 min 0 W/m 12,9 km/h (3 Bft) 97,87 %
29.01.2019 22:06 0,8 C 0,6 C 0,0 C 85 % 995,7 hPa 0,0 l/m 0 min 0 min 0 W/m 12,9 km/h (3 Bft) 97,87 %
29.01.2019 22:08 0,8 C 0,6 C 0,0 C 85 % 995,7 hPa 0,0 l/m 0 min 0 min 0 W/m 12,9 km/h (3 Bft) 100,00 %
29.01.2019 22:10 0,8 C 0,6 C 0,0 C 85 % 995,7 hPa 0,0 l/m 0 min 0 min 0 W/m 16,1 km/h (3 Bft) 97,14 %
29.01.2019 22:12 0,9 C 0,6 C 0,0 C 85 % 995,7 hPa 0,0 l/m 0 min 0 min 0 W/m 16,1 km/h (3 Bft) 98,11 %
29.01.2019 22:14 0,9 C 0,6 C 0,0 C 85 % 995,6 hPa 0,0 l/m 0 min 0 min 0 W/m 12,9 km/h (3 Bft) 95,65 %
29.01.2019 22:16 0,9 C 0,6 C 0,0 C 85 % 995,7 hPa 0,0 l/m 0 min 0 min 0 W/m 9,7 km/h (2 Bft) 97,56 %
29.01.2019 22:18 0,9 C 0,6 C 0,0 C 85 % 995,6 hPa 0,0 l/m 0 min 0 min 0 W/m 12,9 km/h (3 Bft) 96,23 %
29.01.2019 22:20 0,9 C 0,6 C 0,0 C 85 % 995,6 hPa 0,0 l/m 0 min 0 min 0 W/m 16,1 km/h (3 Bft) 97,87 %
29.01.2019 22:22 0,9 C 0,6 C 0,0 C 85 % 995,6 hPa 0,0 l/m 0 min 0 min 0 W/m 16,1 km/h (3 Bft) 97,87 %
29.01.2019 22:24 1,0 C 0,6 C 0,0 C 85 % 995,6 hPa 0,0 l/m 0 min 0 min 0 W/m 12,9 km/h (3 Bft) 97,87 %
29.01.2019 22:26 1,0 C 0,6 C 0,0 C 85 % 995,5 hPa 0,0 l/m 0 min 0 min 0 W/m 22,5 km/h (4 Bft) 97,56 %
29.01.2019 22:28 1,0 C 0,6 C 0,0 C 85 % 995,4 hPa 0,0 l/m 0 min 0 min 0 W/m 12,9 km/h (3 Bft) 98,08 %
29.01.2019 22:30 1,1 C 0,6 C 0,0 C 85 % 995,4 hPa 0,0 l/m 0 min 0 min 0 W/m 9,7 km/h (2 Bft) 97,87 %
29.01.2019 22:32 1,1 C 0,6 C 0,0 C 85 % 995,4 hPa 0,0 l/m 0 min 0 min 0 W/m 9,7 km/h (2 Bft) 95,12 %
29.01.2019 22:34 1,1 C 0,6 C 0,0 C 84 % 995,4 hPa 0,0 l/m 0 min 0 min 0 W/m 12,9 km/h (3 Bft) 95,74 %
29.01.2019 22:36 1,1 C 0,6 C 0,0 C 84 % 995,3 hPa 0,0 l/m 0 min 0 min 0 W/m 16,1 km/h (3 Bft) 95,31 %
29.01.2019 22:38 1,1 C 0,6 C 0,0 C 84 % 995,3 hPa 0,0 l/m 0 min 0 min 0 W/m 16,1 km/h (3 Bft) 92,68 %
29.01.2019 22:40 1,1 C 0,6 C 0,0 C 84 % 995,2 hPa 0,0 l/m 0 min 0 min 0 W/m 16,1 km/h (3 Bft) 97,14 %
29.01.2019 22:42 1,1 C 0,6 C 0,0 C 84 % 995,2 hPa 0,0 l/m 0 min 0 min 0 W/m 9,7 km/h (2 Bft) 93,62 %
29.01.2019 22:44 1,1 C 0,6 C 0,0 C 84 % 995,2 hPa 0,0 l/m 0 min 0 min 0 W/m 12,9 km/h (3 Bft) 96,23 %
29.01.2019 22:46 1,1 C 0,6 C 0,0 C 84 % 995,2 hPa 0,0 l/m 0 min 0 min 0 W/m 9,7 km/h (2 Bft) 95,12 %
29.01.2019 22:48 1,1 C 0,6 C 0,0 C 84 % 995,1 hPa 0,0 l/m 0 min 0 min 0 W/m 19,3 km/h (3 Bft) 95,74 %
29.01.2019 22:50 1,2 C 0,6 C 0,0 C 84 % 995,1 hPa 0,0 l/m 0 min 0 min 0 W/m 16,1 km/h (3 Bft) 98,08 %
29.01.2019 22:52 1,2 C 0,6 C 0,0 C 84 % 995,0 hPa 0,0 l/m 0 min 0 min 0 W/m 12,9 km/h (3 Bft) 95,74 %
29.01.2019 22:54 1,2 C 0,6 C 0,0 C 84 % 995,0 hPa 0,0 l/m 0 min 0 min 0 W/m 16,1 km/h (3 Bft) 97,87 %
29.01.2019 22:56 1,2 C 0,6 C 0,0 C 84 % 995,0 hPa 0,0 l/m 0 min 0 min 0 W/m 16,1 km/h (3 Bft) 97,87 %
29.01.2019 22:58 1,2 C 0,6 C 0,0 C 84 % 994,9 hPa 0,0 l/m 0 min 0 min 0 W/m 16,1 km/h (3 Bft) 95,74 %
29.01.2019 23:00 1,2 C 1,1 C 0,0 C 84 % 995,0 hPa 0,0 l/m 0 min 0 min 0 W/m 12,9 km/h (3 Bft) 97,87 %
29.01.2019 23:02 1,2 C 1,1 C 0,0 C 83 % 994,9 hPa 0,0 l/m 0 min 0 min 0 W/m 9,7 km/h (2 Bft) 97,50 %
29.01.2019 23:04 1,2 C 1,1 C 0,6 C 83 % 994,9 hPa 0,0 l/m 0 min 0 min 0 W/m 29,0 km/h (5 Bft) 98,11 %
29.01.2019 23:06 1,2 C 1,1 C 0,6 C 83 % 994,9 hPa 0,0 l/m 0 min 0 min 0 W/m 22,5 km/h (4 Bft) 98,31 %
29.01.2019 23:08 1,3 C 1,1 C 0,6 C 83 % 994,8 hPa 0,0 l/m 0 min 0 min 0 W/m 22,5 km/h (4 Bft) 95,65 %
29.01.2019 23:10 1,3 C 1,1 C 0,6 C 83 % 994,8 hPa 0,0 l/m 0 min 0 min 0 W/m 19,3 km/h (3 Bft) 94,44 %
29.01.2019 23:12 1,3 C 1,1 C 0,6 C 82 % 994,8 hPa 0,0 l/m 0 min 0 min 0 W/m 19,3 km/h (3 Bft) 95,65 %
29.01.2019 23:14 1,3 C 1,1 C 0,6 C 82 % 994,8 hPa 0,0 l/m 0 min 0 min 0 W/m 12,9 km/h (3 Bft) 97,87 %
29.01.2019 23:16 1,3 C 1,1 C 0,6 C 82 % 994,8 hPa 0,0 l/m 0 min 0 min 0 W/m 19,3 km/h (3 Bft) 97,56 %
29.01.2019 23:18 1,4 C 1,1 C 0,6 C 82 % 994,8 hPa 0,0 l/m 0 min 0 min 0 W/m 22,5 km/h (4 Bft) 96,23 %
29.01.2019 23:20 1,4 C 1,1 C 0,6 C 82 % 994,7 hPa 0,0 l/m 0 min 0 min 0 W/m 22,5 km/h (4 Bft) 95,74 %
29.01.2019 23:22 1,4 C 1,1 C 0,6 C 82 % 994,7 hPa 0,0 l/m 0 min 0 min 0 W/m 16,1 km/h (3 Bft) 95,74 %
29.01.2019 23:24 1,4 C 1,1 C 0,6 C 82 % 994,6 hPa 0,0 l/m 0 min 0 min 0 W/m 19,3 km/h (3 Bft) 93,48 %
29.01.2019 23:26 1,4 C 1,1 C 0,6 C 81 % 994,5 hPa 0,0 l/m 0 min 0 min 0 W/m 12,9 km/h (3 Bft) 93,62 %
29.01.2019 23:28 1,4 C 1,1 C 0,0 C 81 % 994,6 hPa 0,0 l/m 0 min 0 min 0 W/m 12,9 km/h (3 Bft) 95,74 %
29.01.2019 23:30 1,4 C 1,1 C 0,6 C 81 % 994,5 hPa 0,0 l/m 0 min 0 min 0 W/m 25,7 km/h (4 Bft) 95,92 %
29.01.2019 23:32 1,4 C 1,1 C 0,6 C 81 % 994,4 hPa 0,0 l/m 0 min 0 min 0 W/m 19,3 km/h (3 Bft) 95,74 %
29.01.2019 23:34 1,4 C 1,1 C 0,6 C 81 % 994,4 hPa 0,0 l/m 0 min 0 min 0 W/m 16,1 km/h (3 Bft) 95,74 %
29.01.2019 23:36 1,4 C 1,1 C 0,6 C 81 % 994,4 hPa 0,0 l/m 0 min 0 min 0 W/m 19,3 km/h (3 Bft) 97,83 %
29.01.2019 23:38 1,4 C 1,1 C 0,0 C 81 % 994,4 hPa 0,0 l/m 0 min 0 min 0 W/m 12,9 km/h (3 Bft) 97,87 %
29.01.2019 23:40 1,4 C 1,1 C 0,0 C 81 % 994,3 hPa 0,0 l/m 0 min 0 min 0 W/m 16,1 km/h (3 Bft) 97,87 %
29.01.2019 23:42 1,4 C 1,1 C 0,0 C 81 % 994,3 hPa 0,0 l/m 0 min 0 min 0 W/m 16,1 km/h (3 Bft) 97,87 %
29.01.2019 23:44 1,4 C 1,1 C 0,0 C 81 % 994,2 hPa 0,0 l/m 0 min 0 min 0 W/m 22,5 km/h (4 Bft) 95,74 %
29.01.2019 23:46 1,4 C 1,1 C 0,6 C 81 % 994,2 hPa 0,0 l/m 0 min 0 min 0 W/m 22,5 km/h (4 Bft) 97,83 %
29.01.2019 23:48 1,4 C 1,1 C 0,0 C 81 % 994,1 hPa 0,0 l/m 0 min 0 min 0 W/m 22,5 km/h (4 Bft) 97,87 %
29.01.2019 23:50 1,4 C 1,1 C 0,0 C 81 % 994,1 hPa 0,0 l/m 0 min 0 min 0 W/m 16,1 km/h (3 Bft) 97,87 %
29.01.2019 23:52 1,4 C 1,1 C 0,0 C 81 % 994,1 hPa 0,0 l/m 0 min 0 min 0 W/m 29,0 km/h (5 Bft) 97,87 %
29.01.2019 23:54 1,4 C 1,1 C 0,0 C 81 % 994,1 hPa 0,0 l/m 0 min 0 min 0 W/m 16,1 km/h (3 Bft) 95,74 %
29.01.2019 23:56 1,4 C 1,1 C 0,0 C 81 % 994,1 hPa 0,0 l/m 0 min 0 min 0 W/m 16,1 km/h (3 Bft) 95,74 %
29.01.2019 23:58 1,4 C 0,6 C 0,0 C 81 % 994,1 hPa 0,0 l/m 0 min 0 min 0 W/m 12,9 km/h (3 Bft) 97,83 %
_ Min-Zeit 06:10 04:50 04:52 13:48 23:48 - - - - 04:22 00:02
Minimum _ 0,0 C -0,6 C -1,1 C 65 % 994,1 hPa - - - - 0,0 km/h (0 Bft) 4,76 %
_ Max-Zeit 13:12 13:06 12:42 09:16 05:26 00:00 12:08 00:08 13:40 14:34 00:28
Maximum _ 5,3 C 9,4 C 7,2 C 98 % 1005,0 hPa 0,0 l/m 4 min 4 min 424 W/m 35,4 km/h
S-SO (5 Bft)
100,00 %
Durchschnitt _ 1,7 C 1,8 C 0,8 C 87 % 1001,6 hPa #0,0 l/m #3:26 h #14 min. 155 W/m 13,0 km/h (3 Bft) 97,13 %
© 2019 W. Hausmann